| time (UTC) | temp C | wind direction | speed KPH | gust KPH | rain 1hr cm | rain 24hr cm | rain mn cm | humidity % | barometer mb |
| 20260507081904 | 8 | 346 | 11.3 | 16.1 | 0.10 | 1.50 | 0.89 | 95 | 1009.9 |
| 20260507081804 | 8 | 347 | 11.3 | 16.1 | 0.10 | 1.50 | 0.89 | 95 | 1009.8 |
| 20260507081704 | 8 | 348 | 11.3 | 16.1 | 0.10 | 1.50 | 0.89 | 95 | 1009.8 |
| 20260507081604 | 8 | 348 | 11.3 | 16.1 | 0.10 | 1.50 | 0.89 | 95 | 1009.9 |
| 20260507081504 | 8 | 348 | 11.3 | 16.1 | 0.10 | 1.50 | 0.89 | 95 | 1009.8 |
| 20260507081404 | 8 | 349 | 11.3 | 16.1 | 0.13 | 1.50 | 0.89 | 95 | 1009.8 |
| 20260507081304 | 8 | 351 | 11.3 | 16.1 | 0.10 | 1.50 | 0.86 | 95 | 1009.9 |
| 20260507081204 | 8 | 352 | 11.3 | 16.1 | 0.10 | 1.50 | 0.86 | 95 | 1009.7 |
| 20260507081105 | 8 | 353 | 11.3 | 16.1 | 0.13 | 1.50 | 0.86 | 95 | 1009.7 |
| 20260507081004 | 8 | 352 | 11.3 | 16.1 | 0.13 | 1.50 | 0.86 | 95 | 1009.8 |
| 20260507080804 | 8 | 355 | 11.3 | 16.1 | 0.13 | 1.47 | 0.86 | 95 | 1009.7 |
| 20260507080704 | 8 | 356 | 11.3 | 16.1 | 0.13 | 1.47 | 0.86 | 95 | 1009.7 |
| 20260507080604 | 8 | 357 | 11.3 | 16.1 | 0.13 | 1.47 | 0.86 | 95 | 1009.8 |
| 20260507080504 | 8 | 357 | 11.3 | 14.5 | 0.13 | 1.47 | 0.86 | 95 | 1009.7 |
| 20260507080404 | 8 | 357 | 11.3 | 14.5 | 0.13 | 1.47 | 0.86 | 95 | 1009.8 |
| 20260507080304 | 8 | 357 | 11.3 | 16.1 | 0.15 | 1.47 | 0.86 | 95 | 1009.5 |
| 20260507080204 | 8 | 358 | 11.3 | 16.1 | 0.13 | 1.47 | 0.84 | 95 | 1009.7 |
| 20260507080105 | 8 | 357 | 11.3 | 16.1 | 0.15 | 1.47 | 0.84 | 95 | 1009.8 |
| 20260507075804 | 8 | 355 | 11.3 | 16.1 | 0.15 | 1.47 | 0.84 | 95 | 1009.8 |
| 20260507075704 | 8 | 356 | 11.3 | 16.1 | 0.15 | 1.47 | 0.84 | 95 | 1009.6 |
| 20260507075604 | 8 | 355 | 11.3 | 16.1 | 0.15 | 1.47 | 0.84 | 95 | 1009.6 |
| 20260507075513 | 8 | 355 | 11.3 | 16.1 | 0.15 | 1.47 | 0.84 | 95 | 1009.7 |
| 20260507075504 | 8 | 355 | 11.3 | 16.1 | 0.15 | 1.47 | 0.84 | 95 | 1009.7 |
| 20260507075404 | 8 | 356 | 11.3 | 16.1 | 0.15 | 1.45 | 0.84 | 95 | 1009.6 |
| 20260507075311 | 8 | 357 | 9.7 | 16.1 | 0.15 | 1.45 | 0.84 | 95 | 1009.5 |
| 20260507075204 | 8 | 356 | 9.7 | 14.5 | 0.15 | 1.45 | 0.84 | 95 | 1009.5 |
| 20260507075004 | 8 | 356 | 9.7 | 14.5 | 0.15 | 1.45 | 0.84 | 95 | 1009.5 |
| 20260507074905 | 8 | 355 | 9.7 | 14.5 | 0.18 | 1.45 | 0.84 | 95 | 1009.5 |
| 20260507074804 | 8 | 354 | 9.7 | 12.9 | 0.15 | 1.45 | 0.84 | 95 | 1009.7 |
| 20260507074704 | 8 | 354 | 9.7 | 12.9 | 0.15 | 1.45 | 0.84 | 95 | 1009.5 |
| 20260507074604 | 8 | 355 | 9.7 | 12.9 | 0.18 | 1.45 | 0.84 | 95 | 1009.5 |
| 20260507074504 | 8 | 354 | 9.7 | 12.9 | 0.18 | 1.45 | 0.84 | 95 | 1009.6 |
| 20260507074404 | 8 | 352 | 9.7 | 12.9 | 0.18 | 1.45 | 0.84 | 95 | 1009.3 |
| 20260507074306 | 8 | 349 | 9.7 | 12.9 | 0.18 | 1.45 | 0.84 | 95 | 1009.3 |
| 20260507074204 | 8 | 348 | 9.7 | 12.9 | 0.18 | 1.45 | 0.81 | 95 | 1009.5 |
| 20260507074104 | 8 | 347 | 9.7 | 12.9 | 0.18 | 1.45 | 0.81 | 95 | 1009.5 |
| 20260507074004 | 8 | 346 | 9.7 | 12.9 | 0.18 | 1.45 | 0.81 | 95 | 1009.4 |
| 20260507073904 | 8 | 346 | 9.7 | 11.3 | 0.20 | 1.45 | 0.81 | 95 | 1009.3 |
| 20260507073804 | 8 | 346 | 9.7 | 11.3 | 0.20 | 1.45 | 0.81 | 96 | 1009.3 |
| 20260507073604 | 8 | 347 | 9.7 | 14.5 | 0.18 | 1.42 | 0.81 | 95 | 1009.4 |
| 20260507073504 | 8 | 347 | 9.7 | 14.5 | 0.18 | 1.42 | 0.81 | 95 | 1009.4 |
| 20260507073404 | 8 | 346 | 9.7 | 14.5 | 0.18 | 1.42 | 0.81 | 95 | 1009.4 |
| 20260507073305 | 8 | 346 | 9.7 | 14.5 | 0.18 | 1.42 | 0.81 | 95 | 1009.2 |
| 20260507073204 | 8 | 346 | 9.7 | 14.5 | 0.18 | 1.42 | 0.81 | 96 | 1009.4 |
| 20260507073104 | 8 | 347 | 9.7 | 14.5 | 0.20 | 1.42 | 0.81 | 96 | 1009.3 |
| 20260507073004 | 8 | 348 | 9.7 | 14.5 | 0.20 | 1.42 | 0.81 | 96 | 1009.3 |
| 20260507072904 | 8 | 347 | 9.7 | 14.5 | 0.20 | 1.42 | 0.81 | 95 | 1009.4 |
| 20260507072804 | 8 | 347 | 9.7 | 14.5 | 0.20 | 1.42 | 0.81 | 96 | 1009.4 |
| 20260507072705 | 8 | 347 | 9.7 | 14.5 | 0.18 | 1.42 | 0.79 | 95 | 1009.3 |
| 20260507072604 | 8 | 346 | 9.7 | 14.5 | 0.18 | 1.42 | 0.79 | 95 | 1009.3 |
| 20260507072504 | 8 | 347 | 9.7 | 14.5 | 0.18 | 1.42 | 0.79 | 95 | 1009.5 |
| 20260507072404 | 8 | 349 | 8.0 | 12.9 | 0.18 | 1.42 | 0.79 | 95 | 1009.3 |
| 20260507072312 | 8 | 350 | 8.0 | 12.9 | 0.18 | 1.42 | 0.79 | 95 | 1009.3 |
| 20260507072306 | 8 | 350 | 8.0 | 12.9 | 0.18 | 1.42 | 0.79 | 95 | 1009.3 |
| 20260507072204 | 8 | 352 | 8.0 | 12.9 | 0.18 | 1.42 | 0.79 | 95 | 1009.4 |
| 20260507072004 | 8 | 354 | 8.0 | 12.9 | 0.18 | 1.40 | 0.79 | 96 | 1009.3 |
| 20260507071904 | 8 | 355 | 8.0 | 12.9 | 0.18 | 1.40 | 0.79 | 96 | 1009.2 |
| 20260507071704 | 8 | 357 | 8.0 | 11.3 | 0.18 | 1.40 | 0.76 | 96 | 1009.3 |
| 20260507071604 | 8 | 357 | 8.0 | 11.3 | 0.18 | 1.40 | 0.76 | 96 | 1009.2 |
| 20260507071404 | 8 | 359 | 9.7 | 11.3 | 0.18 | 1.37 | 0.76 | 96 | 1009.2 |
| 20260507071304 | 8 | 358 | 9.7 | 11.3 | 0.18 | 1.37 | 0.76 | 96 | 1009.3 |
| 20260507071204 | 8 | 357 | 9.7 | 11.3 | 0.18 | 1.37 | 0.76 | 96 | 1009.1 |
| 20260507071104 | 8 | 354 | 6.4 | 11.3 | 0.18 | 1.37 | 0.76 | 96 | 1009.4 |
| 20260507071004 | 8 | 353 | 6.4 | 9.7 | 0.18 | 1.37 | 0.76 | 96 | 1009.1 |
| 20260507070904 | 8 | 353 | 6.4 | 9.7 | 0.15 | 1.37 | 0.74 | 96 | 1009.1 |
| 20260507070805 | 8 | 353 | 6.4 | 9.7 | 0.15 | 1.37 | 0.74 | 96 | 1009.3 |
| 20260507070704 | 8 | 353 | 6.4 | 9.7 | 0.15 | 1.37 | 0.74 | 95 | 1009.0 |
| 20260507070604 | 8 | 353 | 6.4 | 9.7 | 0.15 | 1.35 | 0.74 | 96 | 1009.3 |
| 20260507070504 | 8 | 353 | 6.4 | 9.7 | 0.15 | 1.35 | 0.74 | 96 | 1009.1 |
| 20260507070404 | 8 | 353 | 6.4 | 9.7 | 0.15 | 1.35 | 0.74 | 96 | 1009.3 |
| 20260507070304 | 8 | 353 | 6.4 | 9.7 | 0.15 | 1.35 | 0.71 | 96 | 1009.1 |
| 20260507070104 | 8 | 354 | 6.4 | 9.7 | 0.15 | 1.32 | 0.71 | 96 | 1009.2 |
| 20260507070010 | 8 | 355 | 6.4 | 9.7 | 0.15 | 1.32 | 0.71 | 96 | 1009.0 |
| 20260507065804 | 8 | 357 | 6.4 | 9.7 | 0.15 | 1.32 | 0.71 | 96 | 1009.0 |
| 20260507065704 | 8 | 358 | 6.4 | 9.7 | 0.15 | 1.32 | 0.69 | 96 | 1009.2 |
| 20260507065604 | 8 | 359 | 6.4 | 9.7 | 0.15 | 1.32 | 0.69 | 96 | 1009.2 |
| 20260507065504 | 8 | 359 | 6.4 | 9.7 | 0.15 | 1.32 | 0.69 | 96 | 1009.0 |
| 20260507065306 | 8 | 360 | 6.4 | 9.7 | 0.15 | 1.30 | 0.69 | 96 | 1008.8 |
| 20260507065204 | 8 | 360 | 6.4 | 9.7 | 0.15 | 1.30 | 0.69 | 96 | 1009.1 |
| 20260507065104 | 8 | 359 | 6.4 | 9.7 | 0.15 | 1.30 | 0.69 | 96 | 1009.1 |
| 20260507065004 | 8 | 358 | 6.4 | 9.7 | 0.15 | 1.30 | 0.69 | 96 | 1009.0 |
| 20260507064804 | 8 | 357 | 6.4 | 9.7 | 0.15 | 1.30 | 0.66 | 96 | 1009.1 |
| 20260507064704 | 8 | 360 | 6.4 | 9.7 | 0.15 | 1.30 | 0.66 | 96 | 1009.1 |
| 20260507064604 | 8 | 2 | 6.4 | 9.7 | 0.15 | 1.27 | 0.66 | 96 | 1008.9 |
| 20260507064512 | 8 | 5 | 6.4 | 6.4 | 0.15 | 1.27 | 0.66 | 96 | 1008.9 |
| 20260507064504 | 8 | 6 | 6.4 | 6.4 | 0.15 | 1.27 | 0.66 | 96 | 1008.9 |
| 20260507064405 | 8 | 10 | 6.4 | 6.4 | 0.15 | 1.27 | 0.66 | 96 | 1009.0 |
| 20260507064211 | 8 | 17 | 6.4 | 6.4 | 0.13 | 1.27 | 0.64 | 96 | 1009.2 |
| 20260507064205 | 8 | 18 | 6.4 | 6.4 | 0.13 | 1.27 | 0.64 | 96 | 1009.2 |
| 20260507064104 | 8 | 22 | 6.4 | 6.4 | 0.15 | 1.27 | 0.64 | 96 | 1008.9 |
| 20260507064011 | 8 | 25 | 6.4 | 6.4 | 0.13 | 1.24 | 0.64 | 96 | 1009.0 |
| 20260507063904 | 8 | 29 | 6.4 | 6.4 | 0.13 | 1.24 | 0.61 | 96 | 1008.9 |
| 20260507063704 | 8 | 26 | 6.4 | 6.4 | 0.13 | 1.24 | 0.61 | 96 | 1008.8 |
| 20260507063604 | 8 | 23 | 6.4 | 6.4 | 0.13 | 1.24 | 0.61 | 96 | 1009.0 |
| 20260507063505 | 8 | 20 | 4.8 | 6.4 | 0.13 | 1.24 | 0.61 | 96 | 1008.9 |
| 20260507063404 | 8 | 16 | 4.8 | 6.4 | 0.13 | 1.24 | 0.61 | 96 | 1008.8 |
| 20260507063304 | 8 | 14 | 4.8 | 6.4 | 0.13 | 1.24 | 0.61 | 96 | 1008.8 |
| 20260507063204 | 8 | 12 | 4.8 | 6.4 | 0.15 | 1.24 | 0.61 | 96 | 1008.7 |
| 20260507063104 | 8 | 6 | 3.2 | 6.4 | 0.13 | 1.22 | 0.61 | 96 | 1008.9 |
| 20260507063004 | 8 | 359 | 3.2 | 6.4 | 0.15 | 1.22 | 0.61 | 96 | 1008.9 |
| 20260507062904 | 8 | 348 | 3.2 | 6.4 | 0.15 | 1.22 | 0.61 | 96 | 1008.8 |
| 20260507062804 | 8 | 337 | 1.6 | 6.4 | 0.15 | 1.22 | 0.61 | 96 | 1008.8 |
| 20260507062704 | 8 | 327 | 1.6 | 6.4 | 0.15 | 1.22 | 0.61 | 96 | 1008.7 |
| 20260507062604 | 8 | 308 | 3.2 | 6.4 | 0.15 | 1.22 | 0.61 | 96 | 1008.7 |
| 20260507062504 | 8 | 273 | 3.2 | 9.7 | 0.15 | 1.22 | 0.61 | 96 | 1008.9 |
| 20260507062404 | 8 | 253 | 1.6 | 9.7 | 0.15 | 1.22 | 0.61 | 96 | 1008.9 |
| 20260507062306 | 8 | 242 | 3.2 | 9.7 | 0.15 | 1.22 | 0.61 | 96 | 1008.8 |
| 20260507062204 | 8 | 239 | 3.2 | 9.7 | 0.15 | 1.22 | 0.61 | 96 | 1008.9 |
| 20260507062104 | 8 | 236 | 3.2 | 11.3 | 0.15 | 1.22 | 0.61 | 96 | 1008.8 |
| 20260507062012 | 8 | 232 | 4.8 | 11.3 | 0.15 | 1.22 | 0.61 | 96 | 1008.8 |
| 20260507061904 | 8 | 230 | 4.8 | 12.9 | 0.15 | 1.22 | 0.61 | 96 | 1008.8 |
| 20260507061704 | 8 | 232 | 6.4 | 12.9 | 0.15 | 1.22 | 0.61 | 96 | 1008.7 |
| 20260507061604 | 8 | 232 | 6.4 | 12.9 | 0.15 | 1.22 | 0.58 | 96 | 1008.6 |
| 20260507061504 | 8 | 232 | 6.4 | 12.9 | 0.15 | 1.22 | 0.58 | 96 | 1008.6 |
| 20260507061404 | 8 | 233 | 8.0 | 12.9 | 0.15 | 1.22 | 0.58 | 96 | 1008.6 |
| 20260507061304 | 8 | 231 | 8.0 | 17.7 | 0.15 | 1.22 | 0.58 | 96 | 1008.7 |
| 20260507061204 | 8 | 230 | 9.7 | 17.7 | 0.15 | 1.19 | 0.58 | 96 | 1008.5 |
| 20260507061104 | 8 | 229 | 9.7 | 17.7 | 0.15 | 1.19 | 0.58 | 96 | 1008.7 |
| 20260507061011 | 8 | 228 | 9.7 | 17.7 | 0.15 | 1.19 | 0.58 | 96 | 1008.6 |
| 20260507061004 | 8 | 228 | 9.7 | 17.7 | 0.15 | 1.19 | 0.58 | 96 | 1008.6 |
| 20260507060904 | 8 | 228 | 9.7 | 17.7 | 0.15 | 1.19 | 0.58 | 96 | 1008.8 |
| 20260507060704 | 7 | 229 | 9.7 | 17.7 | 0.15 | 1.19 | 0.58 | 96 | 1008.5 |
| 20260507060604 | 7 | 230 | 9.7 | 17.7 | 0.15 | 1.19 | 0.56 | 96 | 1008.4 |
| 20260507060505 | 7 | 231 | 9.7 | 17.7 | 0.18 | 1.19 | 0.56 | 96 | 1008.5 |
| 20260507060404 | 7 | 233 | 9.7 | 17.7 | 0.18 | 1.19 | 0.56 | 96 | 1008.5 |
| 20260507060304 | 7 | 238 | 8.0 | 16.1 | 0.18 | 1.19 | 0.56 | 96 | 1008.4 |
| 20260507060212 | 7 | 241 | 8.0 | 14.5 | 0.18 | 1.17 | 0.56 | 96 | 1008.5 |
| 20260507060204 | 7 | 242 | 8.0 | 14.5 | 0.18 | 1.17 | 0.56 | 96 | 1008.5 |
| 20260507060104 | 7 | 246 | 8.0 | 14.5 | 0.18 | 1.17 | 0.56 | 96 | 1008.6 |
| 20260507055904 | 7 | 251 | 8.0 | 14.5 | 0.18 | 1.17 | 0.56 | 96 | 1008.6 |
| 20260507055804 | 7 | 253 | 8.0 | 14.5 | 0.18 | 1.17 | 0.56 | 96 | 1008.5 |
| 20260507055704 | 7 | 255 | 6.4 | 14.5 | 0.18 | 1.17 | 0.56 | 96 | 1008.7 |
| 20260507055604 | 7 | 261 | 6.4 | 14.5 | 0.18 | 1.17 | 0.53 | 96 | 1008.4 |
| 20260507055504 | 7 | 267 | 6.4 | 12.9 | 0.18 | 1.17 | 0.53 | 96 | 1008.5 |
| 20260507055404 | 7 | 263 | 6.4 | 12.9 | 0.18 | 1.17 | 0.53 | 96 | 1008.6 |
| 20260507055306 | 7 | 265 | 6.4 | 12.9 | 0.18 | 1.14 | 0.53 | 96 | 1008.7 |
| 20260507055211 | 7 | 266 | 6.4 | 12.9 | 0.18 | 1.14 | 0.53 | 96 | 1008.6 |
| 20260507055204 | 7 | 266 | 6.4 | 11.3 | 0.18 | 1.14 | 0.53 | 96 | 1008.6 |
| 20260507055104 | 7 | 270 | 6.4 | 11.3 | 0.20 | 1.14 | 0.53 | 96 | 1008.5 |
| 20260507054904 | 7 | 281 | 4.8 | 11.3 | 0.18 | 1.14 | 0.51 | 96 | 1008.7 |
| 20260507054804 | 7 | 284 | 4.8 | 11.3 | 0.20 | 1.14 | 0.51 | 96 | 1008.5 |
| 20260507054711 | 7 | 291 | 6.4 | 12.9 | 0.20 | 1.14 | 0.51 | 96 | 1008.4 |
| 20260507054704 | 7 | 292 | 6.4 | 12.9 | 0.20 | 1.14 | 0.51 | 96 | 1008.4 |
| 20260507054604 | 7 | 293 | 6.4 | 12.9 | 0.20 | 1.14 | 0.51 | 96 | 1008.5 |
| 20260507054404 | 7 | 304 | 6.4 | 12.9 | 0.20 | 1.12 | 0.51 | 96 | 1008.5 |
| 20260507054304 | 7 | 309 | 6.4 | 12.9 | 0.20 | 1.12 | 0.51 | 96 | 1008.5 |
| 20260507054204 | 7 | 313 | 6.4 | 12.9 | 0.20 | 1.12 | 0.51 | 96 | 1008.6 |
| 20260507054104 | 7 | 317 | 6.4 | 12.9 | 0.20 | 1.12 | 0.51 | 96 | 1008.5 |
| 20260507054004 | 7 | 321 | 8.0 | 12.9 | 0.20 | 1.12 | 0.51 | 96 | 1008.6 |
| 20260507053904 | 7 | 325 | 8.0 | 12.9 | 0.20 | 1.12 | 0.51 | 96 | 1008.5 |
| 20260507053804 | 7 | 330 | 8.0 | 12.9 | 0.20 | 1.12 | 0.51 | 96 | 1008.5 |
| 20260507053704 | 7 | 335 | 8.0 | 16.1 | 0.20 | 1.12 | 0.51 | 96 | 1008.7 |
| 20260507053604 | 7 | 338 | 8.0 | 16.1 | 0.20 | 1.12 | 0.48 | 96 | 1008.4 |
| 20260507053504 | 7 | 341 | 8.0 | 16.1 | 0.20 | 1.12 | 0.48 | 96 | 1008.6 |
| 20260507053304 | 7 | 348 | 9.7 | 16.1 | 0.20 | 1.12 | 0.48 | 96 | 1008.5 |
| 20260507053211 | 7 | 347 | 9.7 | 16.1 | 0.20 | 1.09 | 0.48 | 96 | 1008.7 |
| 20260507053204 | 7 | 347 | 9.7 | 16.1 | 0.20 | 1.09 | 0.48 | 96 | 1008.7 |
| 20260507053104 | 7 | 348 | 9.7 | 16.1 | 0.20 | 1.09 | 0.48 | 96 | 1008.4 |
| 20260507052904 | 7 | 352 | 9.7 | 16.1 | 0.18 | 1.09 | 0.48 | 96 | 1008.6 |
| 20260507052804 | 7 | 353 | 9.7 | 16.1 | 0.18 | 1.09 | 0.48 | 96 | 1008.4 |
| 20260507052704 | 7 | 352 | 9.7 | 16.1 | 0.20 | 1.09 | 0.48 | 96 | 1008.3 |
| 20260507052604 | 7 | 352 | 9.7 | 16.1 | 0.20 | 1.09 | 0.48 | 96 | 1008.5 |
| 20260507052505 | 7 | 353 | 9.7 | 16.1 | 0.20 | 1.09 | 0.48 | 96 | 1008.3 |
| 20260507052404 | 7 | 351 | 9.7 | 16.1 | 0.18 | 1.09 | 0.46 | 96 | 1008.4 |
| 20260507052306 | 7 | 351 | 9.7 | 16.1 | 0.18 | 1.09 | 0.46 | 96 | 1008.3 |
| 20260507052204 | 7 | 352 | 9.7 | 16.1 | 0.18 | 1.09 | 0.46 | 96 | 1008.4 |
| 20260507052105 | 7 | 354 | 9.7 | 16.1 | 0.18 | 1.09 | 0.46 | 96 | 1008.3 |
| 20260507052004 | 7 | 352 | 9.7 | 16.1 | 0.18 | 1.07 | 0.46 | 96 | 1008.4 |
| 20260507051812 | 7 | 350 | 9.7 | 16.1 | 0.18 | 1.07 | 0.46 | 96 | 1008.2 |
| 20260507051704 | 7 | 352 | 11.3 | 16.1 | 0.18 | 1.07 | 0.43 | 96 | 1008.3 |
| 20260507051504 | 7 | 352 | 11.3 | 17.7 | 0.18 | 1.04 | 0.43 | 96 | 1008.4 |
| 20260507051404 | 7 | 353 | 11.3 | 17.7 | 0.18 | 1.04 | 0.43 | 96 | 1008.2 |
| 20260507051204 | 7 | 353 | 11.3 | 17.7 | 0.18 | 1.04 | 0.43 | 96 | 1008.4 |
| 20260507051104 | 7 | 353 | 11.3 | 17.7 | 0.18 | 1.04 | 0.43 | 96 | 1008.2 |
| 20260507051004 | 7 | 356 | 11.3 | 17.7 | 0.18 | 1.04 | 0.43 | 96 | 1008.2 |
| 20260507050904 | 7 | 356 | 11.3 | 17.7 | 0.18 | 1.04 | 0.43 | 96 | 1008.3 |
| 20260507050804 | 7 | 354 | 11.3 | 17.7 | 0.18 | 1.04 | 0.43 | 96 | 1008.2 |
| 20260507050704 | 7 | 353 | 11.3 | 17.7 | 0.18 | 1.04 | 0.43 | 96 | 1008.1 |
| 20260507050604 | 7 | 351 | 11.3 | 17.7 | 0.18 | 1.04 | 0.41 | 96 | 1008.2 |
| 20260507050504 | 7 | 351 | 11.3 | 16.1 | 0.15 | 1.02 | 0.41 | 96 | 1008.3 |
| 20260507050404 | 7 | 352 | 11.3 | 16.1 | 0.15 | 1.02 | 0.41 | 96 | 1008.2 |
| 20260507050304 | 7 | 351 | 11.3 | 16.1 | 0.15 | 1.02 | 0.38 | 96 | 1008.1 |
| 20260507050204 | 7 | 351 | 11.3 | 16.1 | 0.15 | 0.99 | 0.38 | 96 | 1008.1 |
| 20260507050104 | 7 | 350 | 11.3 | 20.9 | 0.15 | 0.99 | 0.38 | 96 | 1008.1 |
| 20260507050006 | 7 | 349 | 12.9 | 20.9 | 0.15 | 0.99 | 0.38 | 96 | 1008.1 |
| 20260507045904 | 7 | 350 | 12.9 | 20.9 | 0.15 | 0.99 | 0.38 | 96 | 1008.1 |
| 20260507045804 | 7 | 350 | 12.9 | 20.9 | 0.13 | 0.99 | 0.38 | 96 | 1007.8 |
| 20260507045711 | 7 | 351 | 12.9 | 20.9 | 0.13 | 0.99 | 0.36 | 96 | 1007.9 |
| 20260507045604 | 7 | 353 | 12.9 | 20.9 | 0.13 | 0.97 | 0.36 | 96 | 1008.1 |
| 20260507045404 | 7 | 352 | 12.9 | 20.9 | 0.13 | 0.97 | 0.36 | 96 | 1008.1 |
| 20260507045306 | 7 | 350 | 12.9 | 20.9 | 0.10 | 0.97 | 0.33 | 96 | 1007.8 |
| 20260507045204 | 7 | 349 | 12.9 | 20.9 | 0.10 | 0.97 | 0.33 | 96 | 1008.1 |
| 20260507045104 | 7 | 349 | 11.3 | 20.9 | 0.10 | 0.94 | 0.33 | 96 | 1008.1 |
| 20260507045004 | 7 | 350 | 11.3 | 20.9 | 0.10 | 0.94 | 0.33 | 96 | 1008.1 |
| 20260507044904 | 7 | 349 | 11.3 | 20.9 | 0.10 | 0.94 | 0.33 | 96 | 1008.1 |
| 20260507044804 | 7 | 348 | 11.3 | 20.9 | 0.10 | 0.94 | 0.33 | 96 | 1008.1 |
| 20260507044604 | 7 | 345 | 9.7 | 20.9 | 0.08 | 0.94 | 0.30 | 96 | 1007.9 |
| 20260507044505 | 7 | 344 | 9.7 | 20.9 | 0.08 | 0.94 | 0.30 | 96 | 1007.8 |
| 20260507044404 | 7 | 344 | 9.7 | 17.7 | 0.08 | 0.91 | 0.30 | 96 | 1007.8 |
| 20260507044304 | 7 | 344 | 8.0 | 14.5 | 0.08 | 0.91 | 0.30 | 96 | 1008.1 |
| 20260507044204 | 7 | 345 | 9.7 | 14.5 | 0.08 | 0.91 | 0.30 | 96 | 1007.8 |
| 20260507044104 | 7 | 346 | 9.7 | 16.1 | 0.08 | 0.91 | 0.30 | 96 | 1007.9 |
| 20260507044004 | 7 | 347 | 9.7 | 16.1 | 0.05 | 0.91 | 0.30 | 96 | 1007.9 |
| 20260507043904 | 7 | 346 | 9.7 | 16.1 | 0.05 | 0.91 | 0.28 | 96 | 1007.7 |
| 20260507043804 | 7 | 345 | 8.0 | 16.1 | 0.05 | 0.91 | 0.28 | 96 | 1007.9 |
| 20260507043704 | 7 | 344 | 8.0 | 16.1 | 0.05 | 0.91 | 0.28 | 96 | 1007.9 |
| 20260507043604 | 7 | 344 | 8.0 | 16.1 | 0.05 | 0.91 | 0.28 | 96 | 1007.9 |
| 20260507043505 | 7 | 343 | 8.0 | 16.1 | 0.05 | 0.89 | 0.28 | 96 | 1007.8 |
| 20260507043404 | 7 | 342 | 8.0 | 16.1 | 0.05 | 0.89 | 0.28 | 96 | 1007.8 |
| 20260507043304 | 7 | 341 | 8.0 | 16.1 | 0.05 | 0.89 | 0.28 | 96 | 1007.7 |
| 20260507043204 | 7 | 340 | 8.0 | 16.1 | 0.05 | 0.89 | 0.28 | 96 | 1007.9 |
| 20260507043004 | 7 | 337 | 9.7 | 17.7 | 0.05 | 0.89 | 0.28 | 96 | 1007.8 |
| 20260507042904 | 7 | 339 | 9.7 | 17.7 | 0.05 | 0.89 | 0.28 | 96 | 1007.7 |
| 20260507042804 | 7 | 341 | 11.3 | 17.7 | 0.05 | 0.89 | 0.28 | 96 | 1007.7 |
| 20260507042604 | 7 | 342 | 11.3 | 17.7 | 0.05 | 0.89 | 0.28 | 96 | 1007.6 |
| 20260507042505 | 7 | 343 | 11.3 | 17.7 | 0.05 | 0.89 | 0.28 | 96 | 1007.7 |
| 20260507042404 | 7 | 343 | 11.3 | 17.7 | 0.05 | 0.89 | 0.28 | 96 | 1007.7 |
| 20260507042306 | 7 | 344 | 11.3 | 17.7 | 0.05 | 0.89 | 0.28 | 96 | 1007.5 |
| 20260507042204 | 7 | 343 | 11.3 | 17.7 | 0.05 | 0.89 | 0.28 | 96 | 1007.6 |
| 20260507042104 | 7 | 344 | 9.7 | 17.7 | 0.05 | 0.89 | 0.28 | 96 | 1007.7 |
| 20260507042004 | 7 | 342 | 9.7 | 17.7 | 0.05 | 0.89 | 0.25 | 96 | 1007.6 |
| 20260507041911 | 7 | 341 | 9.7 | 17.7 | 0.05 | 0.89 | 0.25 | 96 | 1007.6 |
| 20260507041904 | 7 | 340 | 9.7 | 17.7 | 0.05 | 0.89 | 0.25 | 96 | 1007.6 |
| 20260507041804 | 7 | 338 | 8.0 | 17.7 | 0.05 | 0.89 | 0.25 | 96 | 1007.6 |
| 20260507041607 | 7 | 339 | 8.0 | 16.1 | 0.05 | 0.89 | 0.25 | 96 | 1007.6 |
| 20260507041504 | 7 | 338 | 8.0 | 12.9 | 0.05 | 0.89 | 0.25 | 96 | 1007.5 |
| 20260507041404 | 7 | 339 | 8.0 | 14.5 | 0.05 | 0.89 | 0.25 | 96 | 1007.4 |
| 20260507041304 | 8 | 337 | 8.0 | 14.5 | 0.03 | 0.86 | 0.25 | 96 | 1007.5 |
| 20260507041204 | 8 | 336 | 8.0 | 14.5 | 0.03 | 0.86 | 0.25 | 96 | 1007.6 |
| 20260507041104 | 8 | 335 | 8.0 | 14.5 | 0.03 | 0.86 | 0.25 | 96 | 1007.4 |
| 20260507041004 | 8 | 336 | 8.0 | 14.5 | 0.03 | 0.86 | 0.25 | 96 | 1007.6 |
| 20260507040904 | 8 | 335 | 8.0 | 14.5 | 0.03 | 0.86 | 0.25 | 96 | 1007.5 |
| 20260507040804 | 8 | 337 | 9.7 | 17.7 | 0.03 | 0.86 | 0.23 | 96 | 1007.5 |
| 20260507040704 | 8 | 335 | 9.7 | 17.7 | 0.03 | 0.86 | 0.23 | 96 | 1007.6 |
| 20260507040604 | 8 | 334 | 8.0 | 17.7 | 0.03 | 0.86 | 0.23 | 96 | 1007.5 |
| 20260507040505 | 8 | 334 | 8.0 | 17.7 | 0.03 | 0.86 | 0.23 | 95 | 1007.3 |
| 20260507040405 | 8 | 332 | 9.7 | 17.7 | 0.03 | 0.86 | 0.23 | 95 | 1007.5 |
| 20260507040305 | 8 | 334 | 9.7 | 17.7 | 0.03 | 0.86 | 0.23 | 96 | 1007.3 |
| 20260507040204 | 8 | 336 | 9.7 | 17.7 | 0.03 | 0.86 | 0.23 | 96 | 1007.4 |
| 20260507040104 | 8 | 336 | 9.7 | 17.7 | 0.03 | 0.86 | 0.23 | 96 | 1007.4 |
| 20260507040005 | 8 | 335 | 9.7 | 17.7 | 0.03 | 0.86 | 0.23 | 96 | 1007.4 |
| 20260507035904 | 8 | 336 | 9.7 | 17.7 | 0.03 | 0.86 | 0.23 | 96 | 1007.4 |
| 20260507035704 | 8 | 335 | 9.7 | 20.9 | 0.03 | 0.86 | 0.23 | 96 | 1007.3 |
| 20260507035604 | 8 | 334 | 8.0 | 20.9 | 0.03 | 0.86 | 0.23 | 96 | 1007.3 |
| 20260507035504 | 8 | 331 | 9.7 | 20.9 | 0.03 | 0.86 | 0.23 | 96 | 1007.2 |
| 20260507035404 | 8 | 330 | 9.7 | 20.9 | 0.03 | 0.86 | 0.23 | 96 | 1007.2 |
| 20260507035204 | 8 | 327 | 9.7 | 20.9 | 0.03 | 0.86 | 0.23 | 96 | 1007.3 |
| 20260507035104 | 8 | 329 | 9.7 | 20.9 | 0.03 | 0.86 | 0.23 | 96 | 1007.2 |
| 20260507035004 | 8 | 328 | 9.7 | 20.9 | 0.03 | 0.86 | 0.23 | 96 | 1007.1 |
| 20260507034904 | 8 | 325 | 9.7 | 20.9 | 0.03 | 0.86 | 0.23 | 96 | 1007.2 |
| 20260507034605 | 8 | 324 | 9.7 | 17.7 | 0.03 | 0.86 | 0.23 | 96 | 1007.2 |
| 20260507034505 | 8 | 324 | 8.0 | 16.1 | 0.03 | 0.86 | 0.23 | 96 | 1007.1 |
| 20260507034404 | 8 | 326 | 8.0 | 16.1 | 0.03 | 0.86 | 0.23 | 96 | 1007.2 |
| 20260507034304 | 8 | 326 | 8.0 | 16.1 | 0.03 | 0.86 | 0.23 | 96 | 1007.1 |
| 20260507034104 | 8 | 326 | 8.0 | 16.1 | 0.03 | 0.86 | 0.23 | 96 | 1007.2 |
| 20260507034005 | 8 | 327 | 8.0 | 16.1 | 0.03 | 0.86 | 0.23 | 96 | 1007.0 |
| 20260507033904 | 8 | 329 | 8.0 | 16.1 | 0.03 | 0.86 | 0.23 | 96 | 1007.2 |
| 20260507033804 | 8 | 330 | 9.7 | 17.7 | 0.03 | 0.86 | 0.23 | 96 | 1007.0 |
| 20260507033704 | 8 | 330 | 9.7 | 17.7 | 0.03 | 0.86 | 0.23 | 96 | 1007.2 |
| 20260507033604 | 8 | 333 | 9.7 | 20.9 | 0.03 | 0.86 | 0.23 | 96 | 1006.9 |
| 20260507033504 | 8 | 335 | 11.3 | 20.9 | 0.03 | 0.86 | 0.23 | 96 | 1007.0 |
| 20260507033404 | 8 | 334 | 11.3 | 20.9 | 0.03 | 0.86 | 0.23 | 96 | 1007.1 |
| 20260507033304 | 8 | 335 | 11.3 | 20.9 | 0.03 | 0.86 | 0.23 | 96 | 1007.0 |
| 20260507033204 | 8 | 337 | 11.3 | 20.9 | 0.03 | 0.86 | 0.23 | 96 | 1006.9 |
| 20260507033104 | 8 | 338 | 11.3 | 20.9 | 0.03 | 0.86 | 0.23 | 95 | 1007.0 |
| 20260507033004 | 8 | 340 | 11.3 | 20.9 | 0.03 | 0.86 | 0.23 | 95 | 1007.0 |
| 20260507032904 | 8 | 340 | 12.9 | 22.5 | 0.03 | 0.86 | 0.23 | 95 | 1007.0 |
| 20260507032804 | 8 | 342 | 12.9 | 22.5 | 0.03 | 0.86 | 0.23 | 95 | 1007.1 |
| 20260507032704 | 8 | 341 | 12.9 | 22.5 | 0.00 | 0.84 | 0.23 | 95 | 1007.1 |
| 20260507032604 | 8 | 340 | 12.9 | 22.5 | 0.00 | 0.84 | 0.23 | 95 | 1007.0 |
| 20260507032504 | 8 | 339 | 11.3 | 22.5 | 0.00 | 0.84 | 0.23 | 95 | 1007.0 |
| 20260507032404 | 8 | 339 | 11.3 | 22.5 | 0.00 | 0.84 | 0.23 | 95 | 1007.0 |
| 20260507032306 | 8 | 337 | 11.3 | 22.5 | 0.00 | 0.84 | 0.23 | 95 | 1007.1 |
| 20260507032205 | 8 | 336 | 11.3 | 22.5 | 0.00 | 0.84 | 0.23 | 95 | 1007.0 |
| 20260507032104 | 8 | 335 | 11.3 | 22.5 | 0.00 | 0.84 | 0.23 | 95 | 1007.0 |
| 20260507032004 | 8 | 333 | 11.3 | 22.5 | 0.00 | 0.84 | 0.23 | 95 | 1007.1 |
| 20260507031904 | 8 | 333 | 11.3 | 22.5 | 0.00 | 0.84 | 0.23 | 95 | 1007.0 |
| 20260507031704 | 8 | 331 | 9.7 | 17.7 | 0.00 | 0.84 | 0.23 | 95 | 1007.0 |
| 20260507031604 | 8 | 332 | 9.7 | 17.7 | 0.00 | 0.84 | 0.23 | 95 | 1006.8 |
| 20260507031506 | 8 | 332 | 9.7 | 17.7 | 0.03 | 0.84 | 0.23 | 95 | 1006.8 |
| 20260507031404 | 8 | 334 | 11.3 | 17.7 | 0.03 | 0.84 | 0.23 | 95 | 1006.9 |
| 20260507031204 | 8 | 340 | 11.3 | 17.7 | 0.03 | 0.84 | 0.23 | 95 | 1007.0 |
| 20260507031104 | 8 | 339 | 11.3 | 17.7 | 0.03 | 0.84 | 0.23 | 95 | 1006.8 |
| 20260507030904 | 8 | 336 | 11.3 | 17.7 | 0.03 | 0.84 | 0.23 | 95 | 1007.0 |
| 20260507030804 | 8 | 336 | 11.3 | 17.7 | 0.03 | 0.84 | 0.23 | 95 | 1006.9 |
| 20260507030704 | 8 | 337 | 11.3 | 17.7 | 0.03 | 0.84 | 0.23 | 95 | 1006.9 |
| 20260507030504 | 8 | 333 | 11.3 | 17.7 | 0.00 | 0.84 | 0.20 | 95 | 1006.7 |
| 20260507030405 | 8 | 330 | 11.3 | 17.7 | 0.00 | 0.84 | 0.20 | 95 | 1006.9 |
| 20260507030304 | 8 | 327 | 11.3 | 17.7 | 0.03 | 0.84 | 0.20 | 95 | 1007.0 |
| 20260507030204 | 8 | 326 | 11.3 | 17.7 | 0.03 | 0.84 | 0.20 | 95 | 1007.0 |
| 20260507030104 | 8 | 326 | 11.3 | 17.7 | 0.03 | 0.84 | 0.20 | 95 | 1006.9 |
| 20260507030005 | 8 | 327 | 11.3 | 17.7 | 0.03 | 0.84 | 0.20 | 95 | 1007.0 |
| 20260507025804 | 8 | 330 | 11.3 | 17.7 | 0.03 | 0.84 | 0.20 | 95 | 1006.9 |
| 20260507025704 | 8 | 329 | 11.3 | 17.7 | 0.03 | 0.84 | 0.20 | 95 | 1006.9 |
| 20260507025604 | 8 | 330 | 11.3 | 17.7 | 0.03 | 0.84 | 0.20 | 95 | 1006.9 |
| 20260507025504 | 8 | 331 | 11.3 | 17.7 | 0.03 | 0.84 | 0.20 | 95 | 1006.9 |
| 20260507025404 | 8 | 331 | 11.3 | 17.7 | 0.03 | 0.84 | 0.20 | 95 | 1006.7 |
| 20260507025306 | 8 | 333 | 11.3 | 17.7 | 0.03 | 0.84 | 0.20 | 95 | 1006.7 |
| 20260507025204 | 8 | 335 | 11.3 | 17.7 | 0.03 | 0.84 | 0.20 | 95 | 1006.8 |
| 20260507025104 | 8 | 336 | 11.3 | 20.9 | 0.03 | 0.84 | 0.20 | 95 | 1006.6 |
| 20260507025011 | 8 | 338 | 11.3 | 20.9 | 0.03 | 0.84 | 0.20 | 95 | 1006.7 |
| 20260507025004 | 8 | 337 | 11.3 | 20.9 | 0.03 | 0.84 | 0.20 | 95 | 1006.7 |
| 20260507024904 | 8 | 334 | 11.3 | 20.9 | 0.03 | 0.84 | 0.20 | 95 | 1006.5 |
| 20260507024704 | 8 | 335 | 12.9 | 20.9 | 0.03 | 0.84 | 0.20 | 95 | 1006.8 |
| 20260507024604 | 8 | 334 | 12.9 | 22.5 | 0.03 | 0.84 | 0.20 | 95 | 1006.8 |
| 20260507024505 | 8 | 334 | 12.9 | 22.5 | 0.03 | 0.84 | 0.20 | 95 | 1006.7 |
| 20260507024404 | 8 | 336 | 11.3 | 22.5 | 0.03 | 0.84 | 0.20 | 95 | 1006.9 |
| 20260507024204 | 8 | 334 | 11.3 | 22.5 | 0.03 | 0.84 | 0.20 | 95 | 1006.8 |
| 20260507024104 | 8 | 334 | 11.3 | 22.5 | 0.03 | 0.84 | 0.20 | 95 | 1006.8 |
| 20260507024007 | 8 | 334 | 11.3 | 22.5 | 0.03 | 0.84 | 0.20 | 95 | 1006.8 |
| 20260507023906 | 8 | 336 | 11.3 | 22.5 | 0.03 | 0.84 | 0.20 | 95 | 1006.8 |
| 20260507023604 | 8 | 339 | 12.9 | 22.5 | 0.03 | 0.84 | 0.20 | 95 | 1007.0 |
| 20260507023504 | 8 | 340 | 12.9 | 22.5 | 0.03 | 0.84 | 0.20 | 95 | 1006.7 |
| 20260507023404 | 8 | 340 | 12.9 | 22.5 | 0.03 | 0.84 | 0.20 | 95 | 1006.7 |
| 20260507023304 | 8 | 341 | 12.9 | 20.9 | 0.03 | 0.84 | 0.20 | 95 | 1006.7 |
| 20260507023204 | 8 | 341 | 12.9 | 20.9 | 0.03 | 0.84 | 0.20 | 95 | 1006.8 |
| 20260507023104 | 8 | 341 | 12.9 | 20.9 | 0.03 | 0.84 | 0.20 | 95 | 1006.9 |
| 20260507023004 | 8 | 341 | 12.9 | 20.9 | 0.03 | 0.84 | 0.20 | 95 | 1006.7 |
| 20260507022904 | 8 | 340 | 12.9 | 20.9 | 0.03 | 0.84 | 0.20 | 95 | 1006.8 |
| 20260507022804 | 8 | 339 | 12.9 | 20.9 | 0.03 | 0.84 | 0.20 | 95 | 1006.8 |
| 20260507022704 | 8 | 340 | 12.9 | 20.9 | 0.03 | 0.84 | 0.20 | 95 | 1006.8 |
| 20260507022604 | 8 | 341 | 12.9 | 20.9 | 0.03 | 0.84 | 0.20 | 95 | 1006.8 |
| 20260507022505 | 8 | 341 | 12.9 | 17.7 | 0.03 | 0.84 | 0.20 | 95 | 1006.8 |
| 20260507022404 | 8 | 343 | 12.9 | 17.7 | 0.03 | 0.84 | 0.20 | 95 | 1006.7 |
| 20260507022306 | 8 | 343 | 11.3 | 17.7 | 0.03 | 0.84 | 0.20 | 95 | 1006.9 |
| 20260507022204 | 8 | 344 | 11.3 | 17.7 | 0.03 | 0.84 | 0.20 | 95 | 1006.8 |
| 20260507022104 | 8 | 344 | 11.3 | 17.7 | 0.03 | 0.84 | 0.20 | 95 | 1006.9 |
| 20260507022004 | 8 | 344 | 9.7 | 17.7 | 0.03 | 0.84 | 0.20 | 95 | 1006.7 |
| 20260507021904 | 8 | 345 | 9.7 | 17.7 | 0.03 | 0.84 | 0.20 | 95 | 1006.8 |
| 20260507021804 | 8 | 346 | 9.7 | 17.7 | 0.03 | 0.84 | 0.20 | 95 | 1006.8 |
| 20260507021704 | 8 | 345 | 9.7 | 17.7 | 0.03 | 0.84 | 0.20 | 95 | 1006.6 |
| 20260507021605 | 8 | 343 | 9.7 | 17.7 | 0.03 | 0.84 | 0.20 | 95 | 1006.8 |
| 20260507021504 | 8 | 344 | 9.7 | 16.1 | 0.03 | 0.84 | 0.20 | 95 | 1006.7 |
| 20260507021406 | 8 | 342 | 9.7 | 16.1 | 0.03 | 0.84 | 0.20 | 94 | 1006.9 |
| 20260507021306 | 8 | 343 | 9.7 | 16.1 | 0.03 | 0.84 | 0.20 | 94 | 1006.7 |
| 20260507021204 | 8 | 345 | 11.3 | 17.7 | 0.03 | 0.84 | 0.20 | 94 | 1006.6 |
| 20260507021104 | 8 | 345 | 11.3 | 17.7 | 0.03 | 0.84 | 0.20 | 94 | 1006.7 |
| 20260507021004 | 8 | 346 | 11.3 | 17.7 | 0.03 | 0.84 | 0.20 | 94 | 1006.7 |
| 20260507020905 | 8 | 347 | 11.3 | 17.7 | 0.03 | 0.84 | 0.20 | 94 | 1006.8 |
| 20260507020804 | 8 | 347 | 11.3 | 17.7 | 0.05 | 0.84 | 0.20 | 94 | 1006.7 |
| 20260507020704 | 8 | 347 | 11.3 | 17.7 | 0.05 | 0.84 | 0.20 | 94 | 1006.6 |
| 20260507020604 | 8 | 347 | 11.3 | 17.7 | 0.08 | 0.84 | 0.20 | 94 | 1006.6 |
| 20260507020504 | 8 | 346 | 11.3 | 17.7 | 0.13 | 0.84 | 0.20 | 94 | 1006.5 |
| 20260507020404 | 8 | 345 | 11.3 | 17.7 | 0.13 | 0.84 | 0.20 | 94 | 1006.7 |
| 20260507020304 | 8 | 342 | 11.3 | 17.7 | 0.15 | 0.81 | 0.18 | 94 | 1006.8 |
| 20260507020205 | 8 | 340 | 9.7 | 17.7 | 0.15 | 0.81 | 0.18 | 94 | 1006.8 |
| 20260507020104 | 8 | 339 | 9.7 | 17.7 | 0.15 | 0.81 | 0.18 | 94 | 1006.5 |
| 20260507020006 | 8 | 337 | 9.7 | 17.7 | 0.15 | 0.81 | 0.18 | 94 | 1006.5 |
| 20260507015904 | 8 | 336 | 9.7 | 20.9 | 0.15 | 0.81 | 0.18 | 94 | 1006.6 |
| 20260507015804 | 8 | 335 | 9.7 | 20.9 | 0.15 | 0.81 | 0.18 | 94 | 1006.6 |
| 20260507015704 | 9 | 336 | 9.7 | 20.9 | 0.15 | 0.81 | 0.18 | 94 | 1006.5 |
| 20260507015604 | 9 | 337 | 9.7 | 20.9 | 0.15 | 0.81 | 0.18 | 94 | 1006.5 |
| 20260507015504 | 9 | 337 | 9.7 | 20.9 | 0.15 | 0.81 | 0.18 | 94 | 1006.8 |
| 20260507015306 | 9 | 339 | 9.7 | 20.9 | 0.15 | 0.81 | 0.18 | 94 | 1006.7 |
| 20260507015204 | 9 | 338 | 9.7 | 20.9 | 0.15 | 0.81 | 0.18 | 94 | 1006.6 |
| 20260507015104 | 9 | 338 | 11.3 | 20.9 | 0.15 | 0.81 | 0.18 | 94 | 1006.7 |
| 20260507015004 | 9 | 339 | 9.7 | 20.9 | 0.15 | 0.81 | 0.18 | 94 | 1006.5 |
| 20260507014904 | 9 | 339 | 9.7 | 17.7 | 0.15 | 0.81 | 0.18 | 94 | 1006.5 |
| 20260507014804 | 9 | 339 | 9.7 | 17.7 | 0.15 | 0.81 | 0.18 | 94 | 1006.7 |
| 20260507014704 | 9 | 337 | 9.7 | 16.1 | 0.15 | 0.81 | 0.18 | 94 | 1006.6 |
| 20260507014604 | 9 | 336 | 9.7 | 17.7 | 0.15 | 0.81 | 0.18 | 94 | 1006.4 |
| 20260507014504 | 9 | 339 | 9.7 | 20.9 | 0.15 | 0.81 | 0.18 | 94 | 1006.4 |
| 20260507014404 | 9 | 337 | 11.3 | 20.9 | 0.15 | 0.81 | 0.18 | 94 | 1006.6 |
| 20260507014304 | 9 | 336 | 9.7 | 20.9 | 0.18 | 0.81 | 0.18 | 94 | 1006.6 |
| 20260507014204 | 9 | 337 | 9.7 | 20.9 | 0.18 | 0.81 | 0.18 | 94 | 1006.5 |
| 20260507014104 | 9 | 337 | 9.7 | 20.9 | 0.18 | 0.81 | 0.18 | 94 | 1006.7 |
| 20260507014005 | 9 | 337 | 9.7 | 20.9 | 0.18 | 0.81 | 0.18 | 94 | 1006.4 |
| 20260507013804 | 9 | 337 | 9.7 | 20.9 | 0.18 | 0.81 | 0.18 | 94 | 1006.5 |
| 20260507013704 | 9 | 334 | 9.7 | 20.9 | 0.18 | 0.81 | 0.18 | 94 | 1006.3 |
| 20260507013604 | 9 | 334 | 9.7 | 20.9 | 0.18 | 0.81 | 0.18 | 94 | 1006.5 |
| 20260507013504 | 9 | 332 | 8.0 | 20.9 | 0.18 | 0.81 | 0.18 | 94 | 1006.4 |
| 20260507013404 | 9 | 330 | 8.0 | 17.7 | 0.18 | 0.81 | 0.18 | 94 | 1006.5 |
| 20260507013304 | 9 | 331 | 8.0 | 17.7 | 0.18 | 0.81 | 0.18 | 94 | 1006.3 |
| 20260507013211 | 9 | 330 | 8.0 | 17.7 | 0.18 | 0.81 | 0.18 | 94 | 1006.5 |
| 20260507013204 | 9 | 331 | 8.0 | 17.7 | 0.18 | 0.81 | 0.18 | 94 | 1006.5 |
| 20260507013104 | 9 | 330 | 8.0 | 17.7 | 0.18 | 0.81 | 0.18 | 94 | 1006.5 |
| 20260507012907 | 9 | 328 | 9.7 | 17.7 | 0.18 | 0.81 | 0.18 | 94 | 1006.4 |
| 20260507012812 | 9 | 329 | 9.7 | 17.7 | 0.18 | 0.81 | 0.18 | 94 | 1006.3 |
| 20260507012805 | 9 | 330 | 9.7 | 17.7 | 0.18 | 0.81 | 0.18 | 94 | 1006.3 |
| 20260507012704 | 9 | 332 | 9.7 | 17.7 | 0.18 | 0.81 | 0.18 | 94 | 1006.5 |
| 20260507012504 | 9 | 331 | 9.7 | 16.1 | 0.18 | 0.81 | 0.18 | 93 | 1006.4 |
| 20260507012404 | 9 | 332 | 9.7 | 16.1 | 0.18 | 0.81 | 0.18 | 93 | 1006.4 |
| 20260507012306 | 9 | 333 | 9.7 | 16.1 | 0.18 | 0.81 | 0.18 | 93 | 1006.3 |
| 20260507012205 | 9 | 334 | 9.7 | 16.1 | 0.18 | 0.81 | 0.18 | 93 | 1006.4 |
| 20260507012105 | 9 | 336 | 9.7 | 16.1 | 0.18 | 0.81 | 0.18 | 93 | 1006.3 |
| 20260507012005 | 10 | 338 | 8.0 | 16.1 | 0.18 | 0.81 | 0.18 | 93 | 1006.4 |
| 20260507011905 | 10 | 339 | 8.0 | 16.1 | 0.18 | 0.81 | 0.18 | 93 | 1006.3 |
| 20260507011815 | 10 | 338 | 8.0 | 16.1 | 0.18 | 0.81 | 0.18 | 93 | 1006.5 |
| 20260507011805 | 10 | 338 | 8.0 | 14.5 | 0.18 | 0.81 | 0.18 | 93 | 1006.5 |
| 20260507011705 | 10 | 339 | 8.0 | 14.5 | 0.18 | 0.81 | 0.18 | 93 | 1006.3 |
| 20260507011612 | 10 | 341 | 8.0 | 14.5 | 0.18 | 0.81 | 0.18 | 93 | 1006.4 |
| 20260507011509 | 10 | 344 | 8.0 | 14.5 | 0.18 | 0.81 | 0.18 | 93 | 1006.4 |
| 20260507011212 | 10 | 343 | 6.4 | 12.9 | 0.18 | 0.81 | 0.18 | 93 | 1006.3 |
| 20260507011204 | 10 | 342 | 6.4 | 12.9 | 0.18 | 0.81 | 0.18 | 93 | 1006.3 |
| 20260507011104 | 10 | 338 | 6.4 | 12.9 | 0.18 | 0.79 | 0.18 | 93 | 1006.3 |
| 20260507010912 | 10 | 334 | 6.4 | 12.9 | 0.18 | 0.79 | 0.18 | 93 | 1006.3 |
| 20260507010904 | 10 | 333 | 6.4 | 12.9 | 0.18 | 0.79 | 0.18 | 93 | 1006.3 |
| 20260507010804 | 10 | 333 | 6.4 | 12.9 | 0.15 | 0.79 | 0.15 | 93 | 1006.4 |
| 20260507010604 | 10 | 331 | 6.4 | 12.9 | 0.13 | 0.76 | 0.13 | 93 | 1006.5 |
| 20260507010504 | 10 | 330 | 6.4 | 12.9 | 0.08 | 0.71 | 0.08 | 93 | 1006.3 |
| 20260507010405 | 10 | 330 | 6.4 | 12.9 | 0.08 | 0.71 | 0.08 | 93 | 1006.5 |
| 20260507010305 | 10 | 332 | 6.4 | 12.9 | 0.03 | 0.66 | 0.03 | 93 | 1006.4 |
| 20260507010105 | 10 | 340 | 6.4 | 14.5 | 0.03 | 0.66 | 0.03 | 93 | 1006.5 |
| 20260507010006 | 10 | 341 | 8.0 | 14.5 | 0.03 | 0.66 | 0.03 | 93 | 1006.3 |
| 20260507005904 | 10 | 344 | 8.0 | 14.5 | 0.03 | 0.66 | 0.03 | 93 | 1006.4 |
| 20260507005804 | 10 | 346 | 8.0 | 14.5 | 0.03 | 0.66 | 0.03 | 93 | 1006.4 |
| 20260507005704 | 10 | 347 | 8.0 | 14.5 | 0.03 | 0.66 | 0.03 | 93 | 1006.2 |
| 20260507005604 | 10 | 347 | 8.0 | 14.5 | 0.03 | 0.66 | 0.03 | 93 | 1006.4 |
| 20260507005504 | 10 | 347 | 8.0 | 14.5 | 0.03 | 0.66 | 0.03 | 93 | 1006.2 |
| 20260507005404 | 10 | 347 | 8.0 | 14.5 | 0.03 | 0.66 | 0.03 | 93 | 1006.3 |
| 20260507005305 | 10 | 346 | 8.0 | 14.5 | 0.03 | 0.66 | 0.03 | 93 | 1006.2 |
| 20260507005204 | 10 | 346 | 8.0 | 12.9 | 0.03 | 0.66 | 0.03 | 93 | 1006.4 |
| 20260507005104 | 10 | 347 | 8.0 | 12.9 | 0.03 | 0.66 | 0.03 | 93 | 1006.3 |
| 20260507005004 | 10 | 348 | 8.0 | 11.3 | 0.03 | 0.66 | 0.03 | 93 | 1006.2 |
| 20260507004904 | 10 | 348 | 8.0 | 11.3 | 0.03 | 0.66 | 0.03 | 93 | 1006.3 |
| 20260507004804 | 10 | 347 | 8.0 | 11.3 | 0.03 | 0.66 | 0.03 | 93 | 1006.4 |
| 20260507004704 | 10 | 347 | 6.4 | 11.3 | 0.03 | 0.66 | 0.03 | 92 | 1006.2 |
| 20260507004611 | 10 | 347 | 6.4 | 11.3 | 0.03 | 0.66 | 0.03 | 92 | 1006.3 |
| 20260507004504 | 10 | 348 | 6.4 | 11.3 | 0.03 | 0.66 | 0.03 | 92 | 1006.2 |
| 20260507004304 | 10 | 345 | 6.4 | 14.5 | 0.00 | 0.64 | 0.00 | 92 | 1006.3 |
| 20260507004204 | 10 | 344 | 6.4 | 14.5 | 0.00 | 0.64 | 0.00 | 92 | 1006.3 |
| 20260507004104 | 10 | 341 | 6.4 | 14.5 | 0.00 | 0.64 | 0.00 | 92 | 1006.3 |
| 20260507003904 | 10 | 339 | 6.4 | 14.5 | 0.00 | 0.64 | 0.00 | 92 | 1006.3 |
| 20260507003804 | 10 | 338 | 6.4 | 14.5 | 0.00 | 0.64 | 0.00 | 92 | 1006.3 |
| 20260507003704 | 10 | 336 | 6.4 | 14.5 | 0.00 | 0.64 | 0.00 | 92 | 1006.3 |
| 20260507003604 | 10 | 334 | 6.4 | 14.5 | 0.00 | 0.64 | 0.00 | 92 | 1006.4 |
| 20260507003504 | 10 | 333 | 6.4 | 14.5 | 0.00 | 0.64 | 0.00 | 92 | 1006.4 |
| 20260507003411 | 10 | 334 | 6.4 | 11.3 | 0.00 | 0.64 | 0.00 | 92 | 1006.3 |
| 20260507003404 | 10 | 335 | 6.4 | 11.3 | 0.00 | 0.64 | 0.00 | 92 | 1006.3 |
| 20260507003304 | 10 | 336 | 6.4 | 11.3 | 0.00 | 0.64 | 0.00 | 92 | 1006.2 |
| 20260507003211 | 10 | 337 | 6.4 | 11.3 | 0.00 | 0.66 | 0.00 | 92 | 1006.2 |
| 20260507003104 | 10 | 337 | 4.8 | 11.3 | 0.00 | 0.66 | 0.00 | 92 | 1006.1 |
| 20260507003011 | 10 | 337 | 4.8 | 11.3 | 0.00 | 0.64 | 0.00 | 92 | 1006.1 |
| 20260507002904 | 10 | 336 | 4.8 | 11.3 | 0.00 | 0.64 | 0.00 | 92 | 1006.1 |
| 20260507002704 | 10 | 335 | 3.2 | 9.7 | 0.00 | 0.64 | 0.00 | 91 | 1006.1 |
| 20260507002604 | 10 | 334 | 3.2 | 9.7 | 0.00 | 0.64 | 0.00 | 91 | 1006.2 |
| 20260507002504 | 10 | 332 | 3.2 | 6.4 | 0.00 | 0.64 | 0.00 | 91 | 1006.3 |
| 20260507002404 | 10 | 332 | 3.2 | 6.4 | 0.00 | 0.64 | 0.00 | 91 | 1006.1 |
| 20260507002311 | 10 | 328 | 3.2 | 4.8 | 0.00 | 0.64 | 0.00 | 91 | 1006.2 |
| 20260507002306 | 10 | 327 | 3.2 | 4.8 | 0.00 | 0.64 | 0.00 | 91 | 1006.2 |
| 20260507002204 | 10 | 325 | 3.2 | 4.8 | 0.00 | 0.64 | 0.00 | 91 | 1006.1 |
| 20260507002004 | 10 | 324 | 3.2 | 4.8 | 0.00 | 0.64 | 0.00 | 91 | 1006.1 |
| 20260507001904 | 10 | 321 | 3.2 | 4.8 | 0.00 | 0.64 | 0.00 | 91 | 1006.2 |
| 20260507001804 | 10 | 319 | 3.2 | 4.8 | 0.00 | 0.64 | 0.00 | 91 | 1006.0 |
| 20260507001705 | 10 | 318 | 1.6 | 4.8 | 0.00 | 0.64 | 0.00 | 91 | 1006.0 |
| 20260507001604 | 10 | 319 | 1.6 | 4.8 | 0.00 | 0.64 | 0.00 | 91 | 1006.2 |
| 20260507001504 | 10 | 319 | 1.6 | 4.8 | 0.00 | 0.64 | 0.00 | 91 | 1006.3 |
| 20260507001404 | 10 | 317 | 1.6 | 4.8 | 0.00 | 0.64 | 0.00 | 91 | 1006.1 |
| 20260507001304 | 10 | 316 | 1.6 | 4.8 | 0.00 | 0.64 | 0.00 | 91 | 1006.2 |
| 20260507001104 | 10 | 302 | 1.6 | 4.8 | 0.00 | 0.64 | 0.00 | 91 | 1006.2 |
| 20260507001011 | 10 | 299 | 0.0 | 4.8 | 0.00 | 0.64 | 0.00 | 91 | 1006.3 |
| 20260507001004 | 10 | 296 | 0.0 | 4.8 | 0.00 | 0.64 | 0.00 | 91 | 1006.3 |
| 20260507000904 | 10 | 297 | 0.0 | 4.8 | 0.00 | 0.64 | 0.00 | 90 | 1006.3 |
| 20260507000704 | 10 | 0 | 0.0 | 0.0 | 0.00 | 0.64 | 0.00 | 90 | 1006.1 |
| 20260507000604 | 10 | 0 | 0.0 | 0.0 | 0.00 | 0.64 | 0.00 | 90 | 1006.2 |
| 20260507000505 | 10 | 0 | 0.0 | 0.0 | 0.00 | 0.64 | 0.00 | 90 | 1006.3 |
| 20260507000405 | 10 | 0 | 0.0 | 0.0 | 0.00 | 0.64 | 0.00 | 90 | 1006.0 |
| 20260507000205 | 10 | 0 | 0.0 | 0.0 | 0.00 | 0.64 | 0.00 | 90 | 1006.1 |
| 20260507000104 | 10 | 0 | 0.0 | 0.0 | 0.00 | 0.64 | 0.00 | 90 | 1006.2 |
| 20260506235904 | 10 | 0 | 0.0 | 0.0 | 0.00 | 0.64 | 0.00 | 90 | 1006.0 |
| 20260506235804 | 10 | 0 | 0.0 | 0.0 | 0.00 | 0.64 | 0.00 | 90 | 1006.1 |
| 20260506235711 | 10 | 0 | 0.0 | 0.0 | 0.00 | 0.64 | 0.00 | 90 | 1006.1 |
| 20260506235604 | 10 | 0 | 0.0 | 0.0 | 0.00 | 0.64 | 0.00 | 90 | 1006.3 |
| 20260506235306 | 10 | 0 | 0.0 | 0.0 | 0.00 | 0.64 | 0.00 | 90 | 1006.2 |
| 20260506235205 | 10 | 0 | 0.0 | 0.0 | 0.00 | 0.64 | 0.00 | 90 | 1006.2 |
| 20260506235104 | 10 | 0 | 0.0 | 0.0 | 0.00 | 0.64 | 0.00 | 90 | 1006.3 |
| 20260506235004 | 10 | 0 | 0.0 | 0.0 | 0.00 | 0.64 | 0.00 | 90 | 1006.1 |
| 20260506234904 | 10 | 0 | 0.0 | 0.0 | 0.00 | 0.64 | 0.00 | 90 | 1006.2 |
| 20260506234804 | 10 | 0 | 0.0 | 0.0 | 0.00 | 0.64 | 0.00 | 90 | 1006.1 |
| 20260506234704 | 10 | 0 | 0.0 | 0.0 | 0.00 | 0.64 | 0.00 | 90 | 1006.1 |
| 20260506234604 | 10 | 0 | 0.0 | 0.0 | 0.00 | 0.64 | 0.00 | 90 | 1006.1 |
| 20260506234404 | 10 | 0 | 0.0 | 0.0 | 0.00 | 0.64 | 0.00 | 90 | 1006.2 |
| 20260506234304 | 10 | 0 | 0.0 | 0.0 | 0.00 | 0.64 | 0.00 | 90 | 1006.3 |
| 20260506234204 | 10 | 0 | 0.0 | 0.0 | 0.00 | 0.64 | 0.00 | 90 | 1006.3 |
| 20260506234104 | 10 | 0 | 0.0 | 0.0 | 0.00 | 0.64 | 0.00 | 90 | 1006.1 |
| 20260506234004 | 10 | 0 | 0.0 | 0.0 | 0.00 | 0.64 | 0.00 | 90 | 1006.3 |
| 20260506233904 | 10 | 0 | 0.0 | 0.0 | 0.00 | 0.64 | 0.00 | 90 | 1006.3 |
| 20260506233804 | 10 | 0 | 0.0 | 0.0 | 0.00 | 0.64 | 0.00 | 90 | 1006.1 |
| 20260506233704 | 10 | 0 | 0.0 | 0.0 | 0.00 | 0.64 | 0.00 | 90 | 1006.4 |
| 20260506233604 | 10 | 0 | 0.0 | 0.0 | 0.00 | 0.64 | 0.00 | 90 | 1006.3 |
| 20260506233504 | 10 | 0 | 0.0 | 0.0 | 0.00 | 0.64 | 0.00 | 90 | 1006.3 |
| 20260506233404 | 10 | 0 | 0.0 | 0.0 | 0.00 | 0.64 | 0.00 | 90 | 1006.2 |
| 20260506233311 | 10 | 0 | 0.0 | 0.0 | 0.00 | 0.64 | 0.00 | 90 | 1006.2 |
| 20260506233204 | 10 | 0 | 0.0 | 0.0 | 0.00 | 0.64 | 0.00 | 90 | 1006.3 |
| 20260506233004 | 10 | 0 | 0.0 | 0.0 | 0.00 | 0.64 | 0.00 | 90 | 1006.2 |
| 20260506232904 | 10 | 0 | 0.0 | 0.0 | 0.00 | 0.64 | 0.00 | 90 | 1006.2 |
| 20260506232804 | 10 | 0 | 0.0 | 0.0 | 0.00 | 0.64 | 0.00 | 90 | 1006.0 |
| 20260506232604 | 10 | 0 | 0.0 | 0.0 | 0.00 | 0.64 | 0.00 | 90 | 1006.2 |
| 20260506232504 | 10 | 0 | 0.0 | 0.0 | 0.00 | 0.64 | 0.00 | 90 | 1006.1 |
| 20260506232404 | 10 | 0 | 0.0 | 0.0 | 0.00 | 0.64 | 0.00 | 90 | 1006.2 |
| 20260506232306 | 10 | 0 | 0.0 | 0.0 | 0.00 | 0.64 | 0.00 | 90 | 1006.1 |
| 20260506232104 | 10 | 0 | 0.0 | 0.0 | 0.00 | 0.64 | 0.00 | 90 | 1006.1 |
| 20260506232004 | 10 | 0 | 0.0 | 0.0 | 0.00 | 0.66 | 0.00 | 90 | 1006.1 |
| 20260506231904 | 10 | 0 | 0.0 | 0.0 | 0.00 | 0.66 | 0.00 | 90 | 1006.1 |
| 20260506231804 | 10 | 0 | 0.0 | 0.0 | 0.00 | 0.66 | 0.00 | 90 | 1006.0 |
| 20260506231704 | 10 | 0 | 0.0 | 0.0 | 0.00 | 0.66 | 0.00 | 89 | 1006.0 |
| 20260506231604 | 10 | 0 | 0.0 | 0.0 | 0.00 | 0.66 | 0.00 | 89 | 1005.9 |
| 20260506231305 | 10 | 0 | 0.0 | 0.0 | 0.00 | 0.66 | 0.00 | 89 | 1006.1 |
| 20260506231204 | 10 | 0 | 0.0 | 0.0 | 0.00 | 0.66 | 0.00 | 89 | 1005.9 |
| 20260506231104 | 10 | 0 | 0.0 | 0.0 | 0.00 | 0.66 | 0.00 | 89 | 1006.1 |
| 20260506230904 | 10 | 0 | 0.0 | 0.0 | 0.00 | 0.66 | 0.00 | 89 | 1006.1 |
| 20260506230804 | 10 | 0 | 0.0 | 0.0 | 0.00 | 0.66 | 0.00 | 89 | 1005.9 |
| 20260506230704 | 10 | 0 | 0.0 | 0.0 | 0.00 | 0.66 | 0.00 | 89 | 1006.1 |
| 20260506230611 | 10 | 0 | 0.0 | 0.0 | 0.00 | 0.66 | 0.00 | 89 | 1006.0 |
| 20260506230504 | 10 | 0 | 0.0 | 0.0 | 0.00 | 0.66 | 0.00 | 89 | 1006.1 |
| 20260506230204 | 11 | 0 | 0.0 | 0.0 | 0.00 | 0.66 | 0.00 | 90 | 1006.1 |
| 20260506230104 | 11 | 0 | 0.0 | 0.0 | 0.00 | 0.66 | 0.00 | 90 | 1006.1 |
| 20260506230004 | 11 | 0 | 0.0 | 0.0 | 0.00 | 0.66 | 0.00 | 90 | 1006.2 |
| 20260506225904 | 11 | 0 | 0.0 | 0.0 | 0.00 | 0.66 | 0.00 | 90 | 1005.9 |
| 20260506225804 | 11 | 0 | 0.0 | 0.0 | 0.00 | 0.66 | 0.00 | 90 | 1006.2 |
| 20260506225704 | 11 | 0 | 0.0 | 0.0 | 0.00 | 0.66 | 0.00 | 90 | 1006.0 |
| 20260506225604 | 11 | 0 | 0.0 | 0.0 | 0.00 | 0.66 | 0.00 | 90 | 1006.2 |
| 20260506225504 | 11 | 0 | 0.0 | 0.0 | 0.00 | 0.66 | 0.00 | 89 | 1006.1 |
| 20260506225404 | 11 | 0 | 0.0 | 0.0 | 0.00 | 0.66 | 0.00 | 89 | 1006.0 |
| 20260506225204 | 11 | 0 | 0.0 | 0.0 | 0.00 | 0.66 | 0.00 | 89 | 1006.1 |
| 20260506225104 | 11 | 0 | 0.0 | 0.0 | 0.00 | 0.66 | 0.00 | 89 | 1006.2 |
| 20260506225004 | 11 | 0 | 0.0 | 0.0 | 0.00 | 0.66 | 0.00 | 89 | 1006.3 |
| 20260506224904 | 11 | 0 | 0.0 | 0.0 | 0.00 | 0.69 | 0.00 | 89 | 1006.0 |
| 20260506224804 | 11 | 0 | 0.0 | 0.0 | 0.00 | 0.69 | 0.00 | 89 | 1006.2 |
| 20260506224704 | 11 | 0 | 0.0 | 0.0 | 0.00 | 0.69 | 0.00 | 89 | 1006.0 |
| 20260506224604 | 11 | 0 | 0.0 | 0.0 | 0.00 | 0.69 | 0.00 | 89 | 1005.9 |
| 20260506224504 | 11 | 0 | 0.0 | 0.0 | 0.00 | 0.69 | 0.00 | 89 | 1006.2 |
| 20260506224404 | 11 | 0 | 0.0 | 0.0 | 0.00 | 0.69 | 0.00 | 89 | 1006.3 |
| 20260506224304 | 11 | 0 | 0.0 | 0.0 | 0.00 | 0.69 | 0.00 | 89 | 1006.0 |
| 20260506224204 | 11 | 0 | 0.0 | 0.0 | 0.00 | 0.71 | 0.00 | 89 | 1006.0 |
| 20260506224104 | 11 | 0 | 0.0 | 0.0 | 0.00 | 0.71 | 0.00 | 89 | 1006.0 |
| 20260506224004 | 11 | 0 | 0.0 | 0.0 | 0.00 | 0.71 | 0.00 | 89 | 1006.0 |
| 20260506223804 | 11 | 0 | 0.0 | 0.0 | 0.00 | 0.71 | 0.00 | 89 | 1006.0 |
| 20260506223705 | 11 | 0 | 0.0 | 0.0 | 0.00 | 0.71 | 0.00 | 89 | 1005.9 |
| 20260506223606 | 11 | 0 | 0.0 | 0.0 | 0.00 | 0.71 | 0.00 | 89 | 1005.9 |
| 20260506223404 | 11 | 0 | 0.0 | 0.0 | 0.00 | 0.71 | 0.00 | 89 | 1005.9 |
| 20260506223304 | 11 | 0 | 0.0 | 0.0 | 0.00 | 0.74 | 0.00 | 89 | 1006.0 |
| 20260506223204 | 11 | 0 | 0.0 | 0.0 | 0.00 | 0.74 | 0.00 | 89 | 1006.0 |
| 20260506223004 | 11 | 0 | 0.0 | 0.0 | 0.00 | 0.74 | 0.00 | 89 | 1005.9 |
| 20260506222904 | 11 | 0 | 0.0 | 0.0 | 0.00 | 0.74 | 0.00 | 89 | 1006.1 |
| 20260506222704 | 11 | 0 | 0.0 | 0.0 | 0.00 | 0.74 | 0.00 | 89 | 1006.0 |
| 20260506222604 | 11 | 0 | 0.0 | 0.0 | 0.00 | 0.74 | 0.00 | 89 | 1006.1 |
| 20260506222504 | 11 | 0 | 0.0 | 0.0 | 0.00 | 0.74 | 0.00 | 89 | 1005.9 |
| 20260506222404 | 11 | 0 | 0.0 | 0.0 | 0.00 | 0.74 | 0.00 | 89 | 1006.2 |
| 20260506222306 | 11 | 0 | 0.0 | 0.0 | 0.03 | 0.76 | 0.00 | 89 | 1006.1 |
| 20260506222204 | 11 | 0 | 0.0 | 0.0 | 0.03 | 0.76 | 0.00 | 89 | 1005.8 |
| 20260506222104 | 11 | 0 | 0.0 | 0.0 | 0.03 | 0.76 | 0.00 | 89 | 1006.1 |
| 20260506222004 | 11 | 0 | 0.0 | 0.0 | 0.03 | 0.76 | 0.00 | 89 | 1006.1 |
| 20260506221904 | 11 | 0 | 0.0 | 0.0 | 0.03 | 0.76 | 0.00 | 89 | 1006.0 |
| 20260506221804 | 11 | 0 | 0.0 | 0.0 | 0.03 | 0.76 | 0.00 | 89 | 1006.0 |
| 20260506221712 | 11 | 0 | 0.0 | 0.0 | 0.05 | 0.76 | 0.00 | 89 | 1005.9 |
| 20260506221604 | 11 | 0 | 0.0 | 0.0 | 0.05 | 0.76 | 0.00 | 89 | 1006.0 |
| 20260506221404 | 11 | 0 | 0.0 | 0.0 | 0.05 | 0.76 | 0.00 | 89 | 1006.0 |
| 20260506221304 | 11 | 0 | 0.0 | 0.0 | 0.08 | 0.76 | 0.00 | 89 | 1005.9 |
| 20260506221204 | 11 | 0 | 0.0 | 0.0 | 0.08 | 0.76 | 0.00 | 89 | 1006.0 |
| 20260506220904 | 11 | 0 | 0.0 | 0.0 | 0.10 | 0.79 | 0.00 | 89 | 1006.0 |
| 20260506220804 | 11 | 0 | 0.0 | 0.0 | 0.10 | 0.79 | 0.00 | 89 | 1006.1 |
| 20260506220704 | 11 | 0 | 0.0 | 0.0 | 0.13 | 0.79 | 0.00 | 89 | 1005.9 |
| 20260506220604 | 11 | 0 | 0.0 | 0.0 | 0.15 | 0.79 | 0.00 | 89 | 1005.9 |
| 20260506220504 | 11 | 0 | 0.0 | 0.0 | 0.18 | 0.79 | 0.00 | 89 | 1005.9 |
| 20260506220404 | 11 | 0 | 0.0 | 0.0 | 0.18 | 0.79 | 0.00 | 89 | 1006.1 |
| 20260506220206 | 11 | 0 | 0.0 | 0.0 | 0.20 | 0.81 | 0.00 | 89 | 1006.0 |
| 20260506220106 | 11 | 0 | 0.0 | 0.0 | 0.20 | 0.81 | 0.00 | 89 | 1006.0 |
| 20260506220049 | 11 | 0 | 0.0 | 0.0 | 0.23 | 0.81 | 0.00 | 89 | 1006.0 |
| 20260506215904 | 11 | 0 | 0.0 | 0.0 | 0.23 | 0.84 | 0.81 | 89 | 1006.1 |
| 20260506215804 | 11 | 0 | 0.0 | 0.0 | 0.23 | 0.84 | 0.81 | 89 | 1006.0 |
| 20260506215604 | 11 | 0 | 0.0 | 0.0 | 0.25 | 0.84 | 0.81 | 89 | 1005.9 |
| 20260506215504 | 11 | 0 | 0.0 | 0.0 | 0.28 | 0.84 | 0.81 | 89 | 1005.9 |
| 20260506215404 | 11 | 252 | 0.0 | 1.6 | 0.30 | 0.84 | 0.81 | 89 | 1006.1 |
| 20260506215306 | 11 | 249 | 0.0 | 3.2 | 0.33 | 0.86 | 0.81 | 89 | 1006.2 |
| 20260506215204 | 11 | 248 | 0.0 | 3.2 | 0.43 | 0.86 | 0.81 | 89 | 1005.9 |
| 20260506215006 | 11 | 248 | 0.0 | 3.2 | 0.46 | 0.89 | 0.81 | 89 | 1006.0 |
| 20260506214904 | 11 | 248 | 0.0 | 3.2 | 0.48 | 0.89 | 0.81 | 89 | 1006.2 |
| 20260506214804 | 11 | 248 | 0.0 | 3.2 | 0.48 | 0.91 | 0.81 | 89 | 1006.1 |
| 20260506214704 | 11 | 248 | 0.0 | 3.2 | 0.48 | 0.91 | 0.81 | 89 | 1006.0 |
| 20260506214604 | 11 | 244 | 0.0 | 3.2 | 0.48 | 0.94 | 0.81 | 89 | 1006.0 |
| 20260506214504 | 11 | 239 | 0.0 | 3.2 | 0.48 | 0.91 | 0.81 | 89 | 1006.0 |
| 20260506214304 | 11 | 225 | 0.0 | 3.2 | 0.48 | 0.94 | 0.81 | 89 | 1005.9 |
| 20260506214204 | 11 | 223 | 1.6 | 4.8 | 0.48 | 0.94 | 0.81 | 89 | 1006.0 |
| 20260506214104 | 11 | 224 | 1.6 | 4.8 | 0.48 | 0.94 | 0.81 | 89 | 1006.0 |
| 20260506214004 | 11 | 223 | 1.6 | 4.8 | 0.48 | 0.97 | 0.81 | 89 | 1005.9 |
| 20260506213906 | 11 | 222 | 1.6 | 6.4 | 0.48 | 0.97 | 0.81 | 89 | 1005.8 |
| 20260506213804 | 11 | 224 | 3.2 | 6.4 | 0.48 | 0.99 | 0.81 | 89 | 1005.9 |
| 20260506213711 | 11 | 225 | 3.2 | 9.7 | 0.48 | 0.99 | 0.81 | 89 | 1006.0 |
| 20260506213604 | 11 | 226 | 3.2 | 9.7 | 0.48 | 1.02 | 0.81 | 89 | 1006.0 |
| 20260506213404 | 11 | 228 | 3.2 | 9.7 | 0.48 | 1.04 | 0.81 | 89 | 1005.8 |
| 20260506213304 | 11 | 230 | 3.2 | 9.7 | 0.48 | 1.09 | 0.81 | 89 | 1006.0 |
| 20260506213204 | 11 | 231 | 3.2 | 9.7 | 0.48 | 1.12 | 0.81 | 89 | 1006.1 |
| 20260506213104 | 11 | 231 | 3.2 | 9.7 | 0.48 | 1.12 | 0.81 | 89 | 1005.9 |
| 20260506213011 | 11 | 233 | 3.2 | 9.7 | 0.48 | 1.12 | 0.81 | 89 | 1006.1 |
| 20260506212904 | 11 | 235 | 3.2 | 9.7 | 0.48 | 1.17 | 0.81 | 89 | 1006.0 |
| 20260506212706 | 11 | 236 | 1.6 | 6.4 | 0.48 | 1.19 | 0.81 | 89 | 1006.1 |
| 20260506212604 | 11 | 241 | 1.6 | 6.4 | 0.51 | 1.22 | 0.81 | 89 | 1006.1 |
| 20260506212504 | 11 | 249 | 1.6 | 6.4 | 0.51 | 1.22 | 0.81 | 89 | 1006.0 |
| 20260506212306 | 11 | 282 | 1.6 | 4.8 | 0.51 | 1.24 | 0.79 | 89 | 1006.0 |
| 20260506212204 | 11 | 286 | 1.6 | 6.4 | 0.51 | 1.27 | 0.79 | 89 | 1006.1 |
| 20260506212104 | 11 | 285 | 1.6 | 6.4 | 0.51 | 1.27 | 0.79 | 89 | 1005.8 |
| 20260506211904 | 11 | 291 | 1.6 | 6.4 | 0.51 | 1.30 | 0.79 | 89 | 1005.8 |
| 20260506211804 | 11 | 292 | 3.2 | 6.4 | 0.51 | 1.30 | 0.79 | 89 | 1005.9 |
| 20260506211704 | 11 | 292 | 3.2 | 6.4 | 0.48 | 1.30 | 0.79 | 89 | 1005.9 |
| 20260506211604 | 11 | 292 | 3.2 | 6.4 | 0.51 | 1.30 | 0.79 | 89 | 1006.0 |
| 20260506211404 | 11 | 294 | 1.6 | 6.4 | 0.48 | 1.32 | 0.76 | 88 | 1006.0 |
| 20260506211304 | 11 | 291 | 1.6 | 6.4 | 0.46 | 1.30 | 0.74 | 88 | 1005.9 |
| 20260506211204 | 11 | 293 | 1.6 | 6.4 | 0.48 | 1.32 | 0.74 | 88 | 1005.9 |
| 20260506211104 | 11 | 296 | 1.6 | 4.8 | 0.48 | 1.35 | 0.74 | 88 | 1006.0 |
| 20260506211004 | 11 | 298 | 1.6 | 4.8 | 0.46 | 1.35 | 0.74 | 88 | 1005.8 |
| 20260506210804 | 11 | 298 | 1.6 | 6.4 | 0.43 | 1.35 | 0.71 | 88 | 1005.8 |
| 20260506210704 | 11 | 299 | 1.6 | 6.4 | 0.43 | 1.37 | 0.71 | 88 | 1005.9 |
| 20260506210604 | 11 | 301 | 1.6 | 6.4 | 0.41 | 1.35 | 0.66 | 88 | 1005.8 |
| 20260506210504 | 11 | 302 | 1.6 | 6.4 | 0.38 | 1.35 | 0.66 | 88 | 1005.8 |
| 20260506210413 | 11 | 296 | 1.6 | 6.4 | 0.43 | 1.35 | 0.66 | 88 | 1005.8 |
| 20260506210404 | 11 | 295 | 1.6 | 6.4 | 0.43 | 1.35 | 0.66 | 88 | 1005.8 |
| 20260506210304 | 11 | 289 | 1.6 | 6.4 | 0.43 | 1.35 | 0.64 | 88 | 1005.9 |
| 20260506210005 | 11 | 270 | 3.2 | 11.3 | 0.38 | 1.32 | 0.58 | 88 | 1005.9 |
| 20260506205904 | 11 | 265 | 3.2 | 11.3 | 0.38 | 1.35 | 0.58 | 88 | 1005.8 |
| 20260506205804 | 11 | 261 | 4.8 | 11.3 | 0.36 | 1.37 | 0.58 | 88 | 1005.9 |
| 20260506205704 | 11 | 258 | 4.8 | 11.3 | 0.33 | 1.35 | 0.56 | 88 | 1005.8 |
| 20260506205604 | 11 | 257 | 4.8 | 11.3 | 0.33 | 1.37 | 0.56 | 88 | 1006.1 |
| 20260506205504 | 11 | 255 | 4.8 | 11.3 | 0.33 | 1.37 | 0.53 | 88 | 1006.1 |
| 20260506205404 | 11 | 258 | 3.2 | 11.3 | 0.30 | 1.35 | 0.51 | 88 | 1006.1 |
| 20260506205306 | 11 | 260 | 3.2 | 11.3 | 0.28 | 1.35 | 0.48 | 88 | 1005.8 |
| 20260506205204 | 11 | 265 | 3.2 | 9.7 | 0.18 | 1.27 | 0.38 | 88 | 1005.9 |
| 20260506205104 | 11 | 271 | 3.2 | 6.4 | 0.18 | 1.27 | 0.38 | 88 | 1006.0 |
| 20260506205004 | 11 | 275 | 3.2 | 6.4 | 0.15 | 1.27 | 0.38 | 88 | 1006.0 |
| 20260506204904 | 11 | 281 | 1.6 | 6.4 | 0.13 | 1.27 | 0.36 | 88 | 1006.0 |
| 20260506204804 | 11 | 285 | 1.6 | 4.8 | 0.13 | 1.27 | 0.33 | 88 | 1006.2 |
| 20260506204704 | 11 | 291 | 1.6 | 4.8 | 0.13 | 1.27 | 0.33 | 88 | 1005.9 |
| 20260506204604 | 11 | 291 | 1.6 | 3.2 | 0.13 | 1.27 | 0.33 | 88 | 1005.8 |
| 20260506204504 | 11 | 298 | 1.6 | 3.2 | 0.13 | 1.32 | 0.33 | 88 | 1006.0 |
| 20260506204404 | 11 | 302 | 1.6 | 4.8 | 0.13 | 1.32 | 0.33 | 88 | 1005.9 |
| 20260506204305 | 11 | 306 | 1.6 | 4.8 | 0.13 | 1.35 | 0.33 | 88 | 1006.0 |
| 20260506204204 | 11 | 307 | 1.6 | 4.8 | 0.13 | 1.35 | 0.33 | 88 | 1006.0 |
| 20260506204104 | 11 | 310 | 1.6 | 4.8 | 0.13 | 1.37 | 0.33 | 88 | 1006.0 |
| 20260506204004 | 11 | 314 | 1.6 | 4.8 | 0.13 | 1.37 | 0.33 | 88 | 1005.8 |
| 20260506203804 | 11 | 327 | 1.6 | 4.8 | 0.13 | 1.40 | 0.33 | 88 | 1005.9 |
| 20260506203704 | 11 | 327 | 3.2 | 4.8 | 0.13 | 1.40 | 0.33 | 88 | 1006.1 |
| 20260506203604 | 11 | 330 | 3.2 | 4.8 | 0.13 | 1.42 | 0.33 | 88 | 1005.8 |
| 20260506203504 | 11 | 332 | 3.2 | 6.4 | 0.13 | 1.42 | 0.33 | 88 | 1005.9 |
| 20260506203304 | 11 | 334 | 3.2 | 6.4 | 0.13 | 1.45 | 0.33 | 88 | 1005.9 |
| 20260506203204 | 11 | 336 | 3.2 | 6.4 | 0.13 | 1.45 | 0.33 | 88 | 1006.0 |
| 20260506203104 | 11 | 334 | 3.2 | 6.4 | 0.10 | 1.45 | 0.33 | 88 | 1005.9 |
| 20260506203004 | 11 | 334 | 3.2 | 6.4 | 0.10 | 1.45 | 0.33 | 88 | 1005.9 |
| 20260506202904 | 11 | 332 | 3.2 | 6.4 | 0.10 | 1.45 | 0.33 | 88 | 1005.8 |
| 20260506202804 | 11 | 326 | 3.2 | 6.4 | 0.10 | 1.47 | 0.33 | 88 | 1005.9 |
| 20260506202505 | 11 | 320 | 3.2 | 6.4 | 0.08 | 1.47 | 0.30 | 87 | 1005.8 |
| 20260506202404 | 11 | 321 | 3.2 | 6.4 | 0.08 | 1.50 | 0.30 | 87 | 1005.8 |
| 20260506202204 | 11 | 322 | 3.2 | 9.7 | 0.08 | 1.52 | 0.30 | 87 | 1005.9 |
| 20260506202104 | 11 | 322 | 3.2 | 9.7 | 0.08 | 1.55 | 0.30 | 87 | 1005.8 |
| 20260506202004 | 11 | 319 | 3.2 | 9.7 | 0.08 | 1.55 | 0.28 | 87 | 1005.9 |
| 20260506201804 | 11 | 324 | 3.2 | 9.7 | 0.08 | 1.60 | 0.28 | 87 | 1006.0 |
| 20260506201704 | 11 | 325 | 4.8 | 9.7 | 0.08 | 1.63 | 0.28 | 87 | 1005.6 |
| 20260506201604 | 11 | 324 | 4.8 | 9.7 | 0.05 | 1.63 | 0.28 | 87 | 1005.9 |
| 20260506201506 | 11 | 323 | 4.8 | 9.7 | 0.05 | 1.65 | 0.28 | 87 | 1005.8 |
| 20260506201404 | 11 | 321 | 3.2 | 9.7 | 0.05 | 1.68 | 0.28 | 87 | 1005.9 |
| 20260506201304 | 11 | 318 | 3.2 | 9.7 | 0.05 | 1.70 | 0.28 | 87 | 1005.8 |
| 20260506201205 | 11 | 311 | 3.2 | 9.7 | 0.05 | 1.70 | 0.28 | 87 | 1005.9 |
| 20260506201104 | 11 | 306 | 3.2 | 9.7 | 0.05 | 1.73 | 0.28 | 87 | 1005.6 |
| 20260506201004 | 11 | 306 | 3.2 | 9.7 | 0.05 | 1.75 | 0.28 | 86 | 1005.8 |
| 20260506200904 | 11 | 297 | 3.2 | 9.7 | 0.05 | 1.75 | 0.28 | 86 | 1005.5 |
| 20260506200805 | 11 | 286 | 3.2 | 6.4 | 0.05 | 1.78 | 0.28 | 86 | 1005.8 |
| 20260506200711 | 11 | 280 | 1.6 | 6.4 | 0.05 | 1.80 | 0.28 | 86 | 1005.6 |
| 20260506200704 | 11 | 279 | 1.6 | 6.4 | 0.05 | 1.80 | 0.28 | 86 | 1005.6 |
| 20260506200604 | 11 | 274 | 1.6 | 6.4 | 0.05 | 1.80 | 0.28 | 85 | 1005.4 |
| 20260506200411 | 11 | 265 | 1.6 | 6.4 | 0.00 | 1.83 | 0.23 | 85 | 1005.6 |
| 20260506200404 | 11 | 264 | 1.6 | 6.4 | 0.00 | 1.83 | 0.23 | 85 | 1005.6 |
| 20260506200304 | 11 | 257 | 1.6 | 6.4 | 0.00 | 1.83 | 0.23 | 85 | 1005.5 |
| 20260506200104 | 11 | 251 | 1.6 | 6.4 | 0.00 | 1.88 | 0.23 | 85 | 1005.5 |
| 20260506200005 | 11 | 250 | 1.6 | 6.4 | 0.00 | 1.88 | 0.23 | 85 | 1005.4 |
| 20260506195904 | 11 | 247 | 1.6 | 6.4 | 0.00 | 1.88 | 0.23 | 85 | 1005.4 |
| 20260506195805 | 11 | 248 | 1.6 | 6.4 | 0.00 | 1.88 | 0.23 | 85 | 1005.6 |
| 20260506195704 | 11 | 248 | 1.6 | 6.4 | 0.00 | 1.91 | 0.23 | 85 | 1005.5 |
| 20260506195604 | 11 | 249 | 1.6 | 6.4 | 0.00 | 1.91 | 0.23 | 85 | 1005.5 |
| 20260506195412 | 11 | 252 | 3.2 | 6.4 | 0.00 | 1.96 | 0.23 | 85 | 1005.6 |
| 20260506195404 | 11 | 253 | 3.2 | 6.4 | 0.00 | 1.96 | 0.23 | 85 | 1005.6 |
| 20260506195306 | 11 | 252 | 3.2 | 6.4 | 0.00 | 1.96 | 0.23 | 85 | 1005.5 |
| 20260506195104 | 11 | 262 | 3.2 | 6.4 | 0.00 | 1.98 | 0.23 | 85 | 1005.4 |
| 20260506195004 | 11 | 265 | 3.2 | 6.4 | 0.00 | 2.01 | 0.23 | 85 | 1005.3 |
| 20260506194904 | 11 | 269 | 3.2 | 6.4 | 0.00 | 2.01 | 0.23 | 85 | 1005.5 |
| 20260506194804 | 11 | 273 | 3.2 | 6.4 | 0.00 | 2.03 | 0.23 | 85 | 1005.5 |
| 20260506194711 | 11 | 278 | 3.2 | 6.4 | 0.00 | 2.03 | 0.23 | 85 | 1005.3 |
| 20260506194704 | 11 | 279 | 3.2 | 6.4 | 0.00 | 2.03 | 0.23 | 85 | 1005.3 |
| 20260506194605 | 11 | 281 | 3.2 | 6.4 | 0.00 | 2.06 | 0.23 | 85 | 1005.2 |
| 20260506194412 | 11 | 290 | 3.2 | 6.4 | 0.00 | 2.06 | 0.23 | 85 | 1005.4 |
| 20260506194304 | 11 | 295 | 3.2 | 6.4 | 0.00 | 2.06 | 0.23 | 84 | 1005.4 |
| 20260506194104 | 11 | 303 | 3.2 | 6.4 | 0.00 | 2.08 | 0.23 | 84 | 1005.3 |
| 20260506194004 | 11 | 303 | 3.2 | 6.4 | 0.00 | 2.08 | 0.23 | 84 | 1005.3 |
| 20260506193904 | 11 | 305 | 4.8 | 6.4 | 0.00 | 2.08 | 0.23 | 84 | 1005.4 |
| 20260506193804 | 11 | 306 | 4.8 | 6.4 | 0.00 | 2.11 | 0.23 | 84 | 1005.4 |
| 20260506193704 | 11 | 309 | 4.8 | 11.3 | 0.00 | 2.11 | 0.23 | 84 | 1005.3 |
| 20260506193604 | 11 | 305 | 4.8 | 11.3 | 0.00 | 2.13 | 0.23 | 84 | 1005.3 |
| 20260506193504 | 11 | 306 | 4.8 | 11.3 | 0.00 | 2.13 | 0.23 | 84 | 1005.2 |
| 20260506193404 | 11 | 307 | 4.8 | 11.3 | 0.00 | 2.13 | 0.23 | 84 | 1005.2 |
| 20260506193304 | 11 | 307 | 4.8 | 11.3 | 0.00 | 2.16 | 0.23 | 84 | 1005.1 |
| 20260506193211 | 11 | 309 | 4.8 | 11.3 | 0.00 | 2.16 | 0.23 | 84 | 1005.1 |
| 20260506193104 | 11 | 312 | 4.8 | 12.9 | 0.00 | 2.18 | 0.23 | 84 | 1005.3 |
| 20260506192904 | 11 | 324 | 6.4 | 16.1 | 0.00 | 2.21 | 0.23 | 84 | 1005.2 |
| 20260506192804 | 11 | 329 | 8.0 | 16.1 | 0.00 | 2.21 | 0.23 | 84 | 1005.3 |
| 20260506192712 | 11 | 331 | 8.0 | 16.1 | 0.00 | 2.21 | 0.23 | 84 | 1005.3 |
| 20260506192704 | 11 | 330 | 8.0 | 16.1 | 0.00 | 2.21 | 0.23 | 84 | 1005.3 |
| 20260506192604 | 11 | 333 | 8.0 | 16.1 | 0.00 | 2.24 | 0.23 | 84 | 1005.2 |
| 20260506192404 | 11 | 336 | 9.7 | 16.1 | 0.00 | 2.26 | 0.23 | 84 | 1005.3 |
| 20260506192305 | 11 | 340 | 9.7 | 16.1 | 0.00 | 2.26 | 0.23 | 84 | 1005.1 |
| 20260506192204 | 11 | 342 | 9.7 | 16.1 | 0.00 | 2.26 | 0.23 | 84 | 1005.3 |
| 20260506192104 | 11 | 344 | 9.7 | 16.1 | 0.00 | 2.29 | 0.23 | 84 | 1005.2 |
| 20260506192004 | 12 | 345 | 9.7 | 16.1 | 0.00 | 2.29 | 0.23 | 84 | 1005.2 |
| 20260506191904 | 12 | 343 | 8.0 | 14.5 | 0.00 | 2.29 | 0.23 | 83 | 1005.0 |
| 20260506191804 | 12 | 342 | 8.0 | 14.5 | 0.00 | 2.29 | 0.23 | 83 | 1005.0 |
| 20260506191704 | 12 | 342 | 6.4 | 14.5 | 0.00 | 2.31 | 0.23 | 83 | 1005.1 |
| 20260506191604 | 12 | 348 | 6.4 | 14.5 | 0.00 | 2.31 | 0.23 | 83 | 1005.1 |
| 20260506191511 | 12 | 354 | 4.8 | 14.5 | 0.00 | 2.31 | 0.23 | 83 | 1005.0 |
| 20260506191504 | 12 | 355 | 4.8 | 14.5 | 0.00 | 2.31 | 0.23 | 83 | 1005.0 |
| 20260506191404 | 12 | 356 | 3.2 | 14.5 | 0.00 | 2.34 | 0.23 | 82 | 1005.1 |
| 20260506191204 | 12 | 356 | 1.6 | 11.3 | 0.00 | 2.34 | 0.23 | 81 | 1005.0 |
| 20260506191104 | 12 | 356 | 0.0 | 4.8 | 0.00 | 2.36 | 0.23 | 80 | 1005.1 |
| 20260506191004 | 12 | 356 | 0.0 | 4.8 | 0.00 | 2.36 | 0.23 | 79 | 1005.0 |
| 20260506190904 | 12 | 0 | 0.0 | 0.0 | 0.00 | 2.36 | 0.23 | 79 | 1004.8 |
| 20260506190804 | 12 | 0 | 0.0 | 0.0 | 0.00 | 2.36 | 0.23 | 79 | 1005.0 |
| 20260506190704 | 12 | 0 | 0.0 | 0.0 | 0.00 | 2.36 | 0.23 | 78 | 1004.8 |
| 20260506190405 | 12 | 234 | 0.0 | 6.4 | 0.00 | 2.39 | 0.23 | 78 | 1004.7 |
| 20260506190304 | 12 | 235 | 1.6 | 11.3 | 0.00 | 2.39 | 0.23 | 78 | 1004.7 |
| 20260506190204 | 12 | 227 | 1.6 | 11.3 | 0.00 | 2.39 | 0.23 | 78 | 1004.7 |
| 20260506190006 | 12 | 228 | 3.2 | 12.9 | 0.00 | 2.41 | 0.23 | 78 | 1004.7 |
| 20260506185904 | 12 | 226 | 4.8 | 12.9 | 0.00 | 2.41 | 0.23 | 78 | 1004.5 |
| 20260506185804 | 12 | 224 | 4.8 | 12.9 | 0.00 | 2.41 | 0.23 | 78 | 1004.6 |
| 20260506185704 | 12 | 220 | 4.8 | 12.9 | 0.00 | 2.41 | 0.23 | 78 | 1004.5 |
| 20260506185605 | 12 | 218 | 6.4 | 12.9 | 0.00 | 2.44 | 0.23 | 78 | 1004.5 |
| 20260506185504 | 12 | 216 | 6.4 | 12.9 | 0.00 | 2.44 | 0.23 | 78 | 1004.5 |
| 20260506185404 | 12 | 214 | 6.4 | 12.9 | 0.00 | 2.44 | 0.23 | 78 | 1004.3 |
| 20260506185307 | 12 | 211 | 6.4 | 12.9 | 0.00 | 2.44 | 0.23 | 78 | 1004.4 |
| 20260506185105 | 13 | 210 | 6.4 | 14.5 | 0.00 | 2.44 | 0.23 | 77 | 1004.5 |
| 20260506185004 | 13 | 209 | 6.4 | 14.5 | 0.00 | 2.44 | 0.23 | 77 | 1004.4 |
| 20260506184905 | 13 | 208 | 6.4 | 14.5 | 0.00 | 2.44 | 0.23 | 77 | 1004.2 |
| 20260506184805 | 13 | 208 | 6.4 | 14.5 | 0.00 | 2.46 | 0.23 | 77 | 1004.2 |
| 20260506184705 | 13 | 210 | 6.4 | 14.5 | 0.00 | 2.46 | 0.23 | 77 | 1004.1 |
| 20260506184605 | 13 | 212 | 6.4 | 14.5 | 0.00 | 2.46 | 0.23 | 77 | 1004.1 |
| 20260506184505 | 13 | 214 | 6.4 | 14.5 | 0.00 | 2.46 | 0.23 | 77 | 1004.2 |
| 20260506184405 | 13 | 215 | 6.4 | 14.5 | 0.00 | 2.46 | 0.23 | 77 | 1004.1 |
| 20260506184305 | 13 | 213 | 6.4 | 14.5 | 0.00 | 2.46 | 0.23 | 77 | 1004.3 |
| 20260506184204 | 13 | 213 | 6.4 | 14.5 | 0.00 | 2.46 | 0.23 | 77 | 1004.2 |
| 20260506184104 | 13 | 211 | 6.4 | 12.9 | 0.00 | 2.46 | 0.23 | 77 | 1004.3 |
| 20260506184007 | 13 | 213 | 6.4 | 12.9 | 0.00 | 2.46 | 0.23 | 77 | 1004.1 |
| 20260506183906 | 13 | 215 | 6.4 | 12.9 | 0.00 | 2.46 | 0.23 | 77 | 1004.1 |
| 20260506183804 | 13 | 215 | 6.4 | 14.5 | 0.00 | 2.46 | 0.23 | 77 | 1004.2 |
| 20260506183613 | 13 | 215 | 8.0 | 14.5 | 0.00 | 2.46 | 0.23 | 77 | 1004.2 |
| 20260506183604 | 13 | 214 | 8.0 | 14.5 | 0.00 | 2.46 | 0.23 | 77 | 1004.2 |
| 20260506183504 | 13 | 214 | 8.0 | 14.5 | 0.00 | 2.46 | 0.23 | 77 | 1004.1 |
| 20260506183313 | 13 | 216 | 8.0 | 22.5 | 0.00 | 2.46 | 0.23 | 77 | 1004.2 |
| 20260506183206 | 13 | 216 | 9.7 | 22.5 | 0.00 | 2.46 | 0.23 | 77 | 1004.0 |
| 20260506183005 | 13 | 215 | 9.7 | 22.5 | 0.00 | 2.46 | 0.23 | 77 | 1003.8 |
| 20260506182904 | 13 | 214 | 9.7 | 22.5 | 0.00 | 2.46 | 0.23 | 77 | 1004.0 |
| 20260506182804 | 13 | 214 | 9.7 | 22.5 | 0.00 | 2.46 | 0.23 | 77 | 1003.9 |
| 20260506182704 | 13 | 215 | 9.7 | 22.5 | 0.00 | 2.46 | 0.23 | 77 | 1003.8 |
| 20260506182604 | 13 | 214 | 9.7 | 22.5 | 0.00 | 2.46 | 0.23 | 77 | 1003.8 |
| 20260506182504 | 13 | 214 | 9.7 | 22.5 | 0.00 | 2.46 | 0.23 | 77 | 1003.9 |
| 20260506182307 | 13 | 216 | 9.7 | 17.7 | 0.00 | 2.49 | 0.23 | 77 | 1003.7 |
| 20260506182205 | 13 | 217 | 9.7 | 17.7 | 0.00 | 2.49 | 0.23 | 78 | 1003.9 |
| 20260506182106 | 13 | 216 | 8.0 | 17.7 | 0.00 | 2.49 | 0.23 | 78 | 1003.8 |
| 20260506182004 | 13 | 215 | 8.0 | 17.7 | 0.00 | 2.49 | 0.23 | 78 | 1003.9 |
| 20260506181904 | 13 | 217 | 8.0 | 14.5 | 0.00 | 2.49 | 0.23 | 78 | 1003.7 |
| 20260506181705 | 13 | 217 | 8.0 | 16.1 | 0.00 | 2.49 | 0.23 | 78 | 1003.8 |
| 20260506181604 | 13 | 217 | 8.0 | 16.1 | 0.00 | 2.49 | 0.23 | 78 | 1003.7 |
| 20260506181504 | 13 | 217 | 8.0 | 16.1 | 0.00 | 2.49 | 0.23 | 78 | 1003.7 |
| 20260506181404 | 13 | 215 | 6.4 | 16.1 | 0.00 | 2.49 | 0.23 | 78 | 1003.7 |
| 20260506181304 | 13 | 211 | 6.4 | 16.1 | 0.00 | 2.49 | 0.23 | 78 | 1003.8 |
| 20260506181204 | 13 | 210 | 6.4 | 16.1 | 0.00 | 2.49 | 0.23 | 78 | 1003.8 |
| 20260506181104 | 13 | 210 | 6.4 | 16.1 | 0.00 | 2.49 | 0.23 | 78 | 1003.9 |
| 20260506181005 | 13 | 207 | 4.8 | 16.1 | 0.00 | 2.49 | 0.23 | 78 | 1003.9 |
| 20260506180904 | 13 | 205 | 4.8 | 16.1 | 0.00 | 2.49 | 0.23 | 78 | 1003.8 |
| 20260506180804 | 13 | 204 | 4.8 | 14.5 | 0.03 | 2.49 | 0.23 | 78 | 1003.7 |
| 20260506180704 | 13 | 206 | 6.4 | 14.5 | 0.03 | 2.49 | 0.23 | 78 | 1004.0 |
| 20260506180604 | 13 | 208 | 6.4 | 14.5 | 0.03 | 2.49 | 0.23 | 78 | 1003.8 |
| 20260506180505 | 13 | 209 | 8.0 | 14.5 | 0.03 | 2.51 | 0.23 | 78 | 1003.7 |
| 20260506180405 | 13 | 211 | 8.0 | 14.5 | 0.03 | 2.51 | 0.23 | 78 | 1003.8 |
| 20260506180305 | 13 | 213 | 9.7 | 14.5 | 0.03 | 2.51 | 0.23 | 78 | 1003.7 |
| 20260506180205 | 13 | 214 | 9.7 | 14.5 | 0.03 | 2.51 | 0.23 | 78 | 1003.9 |
| 20260506180106 | 13 | 216 | 9.7 | 14.5 | 0.03 | 2.51 | 0.23 | 78 | 1003.7 |
| 20260506180011 | 13 | 217 | 9.7 | 14.5 | 0.03 | 2.51 | 0.23 | 78 | 1003.8 |
| 20260506175905 | 13 | 214 | 11.3 | 14.5 | 0.03 | 2.51 | 0.23 | 78 | 1003.7 |
| 20260506175811 | 13 | 212 | 11.3 | 14.5 | 0.03 | 2.51 | 0.23 | 78 | 1003.7 |
| 20260506175711 | 13 | 209 | 11.3 | 14.5 | 0.03 | 2.51 | 0.23 | 78 | 1003.6 |
| 20260506175704 | 13 | 208 | 11.3 | 14.5 | 0.03 | 2.51 | 0.23 | 78 | 1003.6 |
| 20260506175511 | 13 | 201 | 11.3 | 14.5 | 0.03 | 2.51 | 0.23 | 79 | 1003.8 |
| 20260506175404 | 13 | 199 | 11.3 | 14.5 | 0.03 | 2.51 | 0.23 | 79 | 1003.6 |
| 20260506175204 | 13 | 192 | 9.7 | 14.5 | 0.03 | 2.51 | 0.23 | 79 | 1003.6 |
| 20260506175104 | 13 | 188 | 11.3 | 14.5 | 0.03 | 2.54 | 0.23 | 79 | 1003.6 |
| 20260506175004 | 13 | 188 | 11.3 | 17.7 | 0.03 | 2.54 | 0.23 | 79 | 1003.6 |
| 20260506174911 | 13 | 189 | 9.7 | 17.7 | 0.03 | 2.54 | 0.23 | 79 | 1003.8 |
| 20260506174904 | 13 | 190 | 9.7 | 17.7 | 0.03 | 2.54 | 0.23 | 79 | 1003.8 |
| 20260506174604 | 13 | 190 | 9.7 | 17.7 | 0.03 | 2.54 | 0.23 | 79 | 1003.6 |
| 20260506174504 | 13 | 190 | 9.7 | 17.7 | 0.03 | 2.54 | 0.23 | 80 | 1003.7 |
| 20260506174404 | 13 | 189 | 9.7 | 17.7 | 0.03 | 2.54 | 0.23 | 80 | 1003.8 |
| 20260506174305 | 13 | 189 | 9.7 | 17.7 | 0.03 | 2.54 | 0.23 | 80 | 1003.8 |
| 20260506174106 | 13 | 196 | 9.7 | 17.7 | 0.03 | 2.54 | 0.23 | 80 | 1003.7 |
| 20260506174004 | 13 | 198 | 9.7 | 16.1 | 0.03 | 2.54 | 0.23 | 80 | 1003.6 |
| 20260506173904 | 13 | 198 | 9.7 | 16.1 | 0.03 | 2.54 | 0.23 | 80 | 1003.8 |
| 20260506173804 | 13 | 196 | 9.7 | 16.1 | 0.03 | 2.54 | 0.23 | 80 | 1003.9 |
| 20260506173704 | 13 | 197 | 9.7 | 16.1 | 0.03 | 2.54 | 0.23 | 80 | 1003.8 |
| 20260506173605 | 13 | 202 | 9.7 | 16.1 | 0.03 | 2.54 | 0.23 | 80 | 1003.9 |
| 20260506173411 | 13 | 209 | 9.7 | 14.5 | 0.03 | 2.54 | 0.23 | 80 | 1003.8 |
| 20260506173404 | 13 | 210 | 9.7 | 14.5 | 0.03 | 2.54 | 0.23 | 80 | 1003.8 |
| 20260506173304 | 13 | 218 | 9.7 | 12.9 | 0.03 | 2.54 | 0.23 | 79 | 1004.1 |
| 20260506173104 | 12 | 230 | 9.7 | 12.9 | 0.03 | 2.54 | 0.23 | 79 | 1003.9 |
| 20260506173004 | 12 | 231 | 9.7 | 12.9 | 0.03 | 2.54 | 0.23 | 79 | 1003.8 |
| 20260506172904 | 12 | 230 | 9.7 | 16.1 | 0.03 | 2.54 | 0.23 | 79 | 1003.9 |
| 20260506172805 | 12 | 232 | 9.7 | 24.1 | 0.03 | 2.54 | 0.23 | 79 | 1003.9 |
| 20260506172704 | 12 | 237 | 11.3 | 24.1 | 0.03 | 2.54 | 0.23 | 78 | 1004.1 |
| 20260506172604 | 12 | 236 | 11.3 | 24.1 | 0.03 | 2.54 | 0.23 | 78 | 1004.0 |
| 20260506172504 | 12 | 237 | 11.3 | 24.1 | 0.03 | 2.54 | 0.23 | 78 | 1004.1 |
| 20260506172404 | 12 | 235 | 12.9 | 24.1 | 0.03 | 2.54 | 0.23 | 78 | 1004.0 |
| 20260506172306 | 12 | 233 | 12.9 | 24.1 | 0.03 | 2.54 | 0.23 | 78 | 1003.9 |
| 20260506172211 | 12 | 230 | 12.9 | 24.1 | 0.03 | 2.54 | 0.23 | 78 | 1004.0 |
| 20260506172204 | 12 | 229 | 12.9 | 24.1 | 0.03 | 2.54 | 0.23 | 78 | 1004.0 |
| 20260506172105 | 12 | 225 | 14.5 | 24.1 | 0.03 | 2.54 | 0.23 | 78 | 1004.1 |
| 20260506171804 | 13 | 233 | 16.1 | 29.0 | 0.03 | 2.54 | 0.23 | 78 | 1003.9 |
| 20260506171712 | 13 | 230 | 16.1 | 30.6 | 0.00 | 2.54 | 0.20 | 77 | 1003.9 |
| 20260506171704 | 13 | 230 | 16.1 | 30.6 | 0.00 | 2.54 | 0.20 | 77 | 1003.9 |
| 20260506171604 | 13 | 232 | 16.1 | 30.6 | 0.00 | 2.54 | 0.20 | 76 | 1004.0 |
| 20260506171404 | 13 | 235 | 17.7 | 33.8 | 0.00 | 2.54 | 0.20 | 75 | 1003.9 |
| 20260506171304 | 13 | 234 | 19.3 | 33.8 | 0.00 | 2.54 | 0.20 | 75 | 1003.9 |
| 20260506171204 | 13 | 236 | 19.3 | 33.8 | 0.00 | 2.54 | 0.20 | 73 | 1003.9 |
| 20260506171105 | 13 | 236 | 19.3 | 41.8 | 0.00 | 2.54 | 0.20 | 73 | 1003.9 |
| 20260506171004 | 13 | 237 | 19.3 | 41.8 | 0.00 | 2.54 | 0.20 | 72 | 1004.0 |
| 20260506170904 | 14 | 234 | 19.3 | 41.8 | 0.00 | 2.54 | 0.20 | 72 | 1003.9 |
| 20260506170804 | 14 | 232 | 19.3 | 41.8 | 0.00 | 2.54 | 0.20 | 72 | 1003.9 |
| 20260506170705 | 14 | 232 | 17.7 | 41.8 | 0.00 | 2.54 | 0.20 | 71 | 1004.0 |
| 20260506170504 | 14 | 229 | 17.7 | 41.8 | 0.00 | 2.54 | 0.20 | 69 | 1004.0 |
| 20260506170404 | 14 | 228 | 17.7 | 41.8 | 0.00 | 2.54 | 0.20 | 68 | 1004.0 |
| 20260506170304 | 14 | 227 | 17.7 | 41.8 | 0.00 | 2.54 | 0.20 | 68 | 1003.9 |
| 20260506170204 | 14 | 227 | 16.1 | 41.8 | 0.00 | 2.54 | 0.20 | 68 | 1003.9 |
| 20260506170104 | 14 | 226 | 14.5 | 33.8 | 0.00 | 2.54 | 0.20 | 69 | 1004.0 |
| 20260506170005 | 14 | 225 | 14.5 | 29.0 | 0.00 | 2.54 | 0.20 | 69 | 1004.1 |
| 20260506165904 | 15 | 227 | 12.9 | 29.0 | 0.00 | 2.54 | 0.20 | 69 | 1004.1 |
| 20260506165804 | 15 | 228 | 12.9 | 29.0 | 0.00 | 2.54 | 0.20 | 69 | 1004.1 |
| 20260506165706 | 15 | 230 | 12.9 | 29.0 | 0.00 | 2.54 | 0.20 | 70 | 1004.0 |
| 20260506165604 | 15 | 231 | 12.9 | 29.0 | 0.00 | 2.54 | 0.20 | 70 | 1004.1 |
| 20260506165504 | 15 | 234 | 12.9 | 29.0 | 0.00 | 2.54 | 0.20 | 70 | 1003.9 |
| 20260506165404 | 15 | 237 | 11.3 | 25.7 | 0.00 | 2.54 | 0.20 | 70 | 1004.2 |
| 20260506165305 | 15 | 242 | 11.3 | 25.7 | 0.00 | 2.54 | 0.20 | 70 | 1004.2 |
| 20260506165204 | 15 | 244 | 11.3 | 25.7 | 0.00 | 2.54 | 0.20 | 69 | 1004.2 |
| 20260506165104 | 15 | 247 | 12.9 | 25.7 | 0.00 | 2.54 | 0.20 | 69 | 1004.1 |
| 20260506165011 | 15 | 251 | 12.9 | 25.7 | 0.00 | 2.54 | 0.20 | 69 | 1004.1 |
| 20260506165005 | 15 | 252 | 12.9 | 25.7 | 0.00 | 2.54 | 0.20 | 69 | 1004.1 |
| 20260506164904 | 15 | 253 | 12.9 | 25.7 | 0.00 | 2.54 | 0.20 | 69 | 1004.0 |
| 20260506164704 | 15 | 253 | 12.9 | 25.7 | 0.00 | 2.54 | 0.20 | 68 | 1004.0 |
| 20260506164604 | 15 | 254 | 11.3 | 24.1 | 0.00 | 2.54 | 0.20 | 67 | 1004.0 |
| 20260506164504 | 15 | 256 | 11.3 | 24.1 | 0.00 | 2.54 | 0.20 | 67 | 1004.0 |
| 20260506164404 | 16 | 255 | 11.3 | 24.1 | 0.00 | 2.54 | 0.20 | 67 | 1004.3 |
| 20260506164304 | 16 | 254 | 11.3 | 24.1 | 0.00 | 2.54 | 0.20 | 66 | 1004.0 |
| 20260506164204 | 16 | 250 | 9.7 | 24.1 | 0.00 | 2.54 | 0.20 | 66 | 1004.1 |
| 20260506164104 | 16 | 248 | 9.7 | 24.1 | 0.00 | 2.54 | 0.20 | 66 | 1003.9 |
| 20260506163911 | 16 | 243 | 6.4 | 22.5 | 0.00 | 2.54 | 0.20 | 67 | 1004.0 |
| 20260506163904 | 16 | 244 | 6.4 | 22.5 | 0.00 | 2.54 | 0.20 | 66 | 1004.0 |
| 20260506163805 | 16 | 244 | 6.4 | 20.9 | 0.00 | 2.54 | 0.20 | 66 | 1004.0 |
| 20260506163604 | 16 | 237 | 4.8 | 11.3 | 0.00 | 2.54 | 0.20 | 66 | 1003.7 |
| 20260506163504 | 16 | 239 | 4.8 | 16.1 | 0.00 | 2.54 | 0.20 | 66 | 1003.8 |
| 20260506163404 | 16 | 239 | 4.8 | 16.1 | 0.00 | 2.54 | 0.20 | 66 | 1003.8 |
| 20260506163305 | 16 | 235 | 4.8 | 16.1 | 0.00 | 2.54 | 0.20 | 66 | 1003.9 |
| 20260506163105 | 16 | 235 | 6.4 | 16.1 | 0.00 | 2.54 | 0.20 | 66 | 1003.8 |
| 20260506163004 | 16 | 233 | 6.4 | 17.7 | 0.00 | 2.54 | 0.20 | 65 | 1003.8 |
| 20260506162804 | 16 | 230 | 8.0 | 17.7 | 0.00 | 2.54 | 0.20 | 65 | 1003.9 |
| 20260506162704 | 16 | 230 | 8.0 | 17.7 | 0.00 | 2.54 | 0.20 | 65 | 1003.8 |
| 20260506162604 | 17 | 230 | 9.7 | 17.7 | 0.00 | 2.54 | 0.20 | 65 | 1003.8 |
| 20260506162504 | 17 | 227 | 9.7 | 17.7 | 0.00 | 2.54 | 0.20 | 65 | 1003.8 |
| 20260506162307 | 17 | 223 | 9.7 | 22.5 | 0.00 | 2.54 | 0.20 | 65 | 1003.7 |
| 20260506162204 | 17 | 222 | 9.7 | 22.5 | 0.00 | 2.54 | 0.20 | 65 | 1003.5 |
| 20260506162104 | 17 | 221 | 9.7 | 22.5 | 0.00 | 2.54 | 0.20 | 65 | 1003.9 |
| 20260506162011 | 17 | 220 | 9.7 | 24.1 | 0.00 | 2.54 | 0.20 | 65 | 1003.5 |
| 20260506162005 | 17 | 220 | 9.7 | 24.1 | 0.00 | 2.54 | 0.20 | 65 | 1003.5 |
| 20260506161904 | 17 | 217 | 9.7 | 24.1 | 0.00 | 2.54 | 0.20 | 65 | 1003.7 |
| 20260506161704 | 17 | 213 | 9.7 | 24.1 | 0.00 | 2.54 | 0.20 | 65 | 1003.7 |
| 20260506161604 | 17 | 210 | 8.0 | 24.1 | 0.00 | 2.54 | 0.20 | 65 | 1003.8 |
| 20260506161505 | 17 | 207 | 8.0 | 24.1 | 0.00 | 2.54 | 0.20 | 65 | 1003.6 |
| 20260506161404 | 17 | 205 | 8.0 | 24.1 | 0.00 | 2.54 | 0.20 | 65 | 1003.7 |
| 20260506161304 | 17 | 206 | 8.0 | 24.1 | 0.00 | 2.54 | 0.20 | 65 | 1003.8 |
| 20260506161104 | 17 | 203 | 8.0 | 24.1 | 0.00 | 2.54 | 0.20 | 65 | 1003.5 |
| 20260506161004 | 17 | 205 | 8.0 | 24.1 | 0.00 | 2.54 | 0.20 | 65 | 1003.7 |
| 20260506160911 | 17 | 207 | 8.0 | 17.7 | 0.00 | 2.54 | 0.20 | 66 | 1003.7 |
| 20260506160904 | 17 | 208 | 8.0 | 17.7 | 0.00 | 2.54 | 0.20 | 66 | 1003.7 |
| 20260506160804 | 17 | 209 | 8.0 | 17.7 | 0.00 | 2.54 | 0.20 | 66 | 1003.6 |
| 20260506160605 | 17 | 209 | 9.7 | 17.7 | 0.00 | 2.54 | 0.20 | 65 | 1003.5 |
| 20260506160511 | 17 | 212 | 9.7 | 17.7 | 0.00 | 2.54 | 0.20 | 65 | 1003.7 |
| 20260506160504 | 17 | 213 | 9.7 | 17.7 | 0.00 | 2.54 | 0.20 | 65 | 1003.7 |
| 20260506160404 | 17 | 215 | 9.7 | 17.7 | 0.00 | 2.54 | 0.20 | 66 | 1003.6 |
| 20260506160105 | 17 | 220 | 8.0 | 16.1 | 0.00 | 2.54 | 0.20 | 65 | 1003.6 |
| 20260506160006 | 17 | 217 | 8.0 | 16.1 | 0.00 | 2.54 | 0.20 | 65 | 1003.7 |
| 20260506155904 | 17 | 214 | 9.7 | 22.5 | 0.00 | 2.54 | 0.20 | 64 | 1003.7 |
| 20260506155704 | 17 | 216 | 9.7 | 27.4 | 0.00 | 2.54 | 0.20 | 65 | 1003.5 |
| 20260506155604 | 17 | 217 | 9.7 | 27.4 | 0.00 | 2.54 | 0.20 | 65 | 1003.7 |
| 20260506155504 | 17 | 216 | 9.7 | 27.4 | 0.00 | 2.54 | 0.20 | 65 | 1003.6 |
| 20260506155411 | 17 | 215 | 9.7 | 27.4 | 0.00 | 2.54 | 0.20 | 65 | 1003.5 |
| 20260506155306 | 17 | 215 | 9.7 | 27.4 | 0.00 | 2.54 | 0.20 | 64 | 1003.5 |
| 20260506155104 | 17 | 215 | 9.7 | 27.4 | 0.00 | 2.54 | 0.20 | 64 | 1003.5 |
| 20260506155004 | 17 | 216 | 9.7 | 27.4 | 0.00 | 2.54 | 0.20 | 64 | 1003.5 |
| 20260506154904 | 17 | 217 | 8.0 | 27.4 | 0.00 | 2.54 | 0.20 | 64 | 1003.5 |
| 20260506154804 | 17 | 220 | 8.0 | 24.1 | 0.00 | 2.54 | 0.20 | 65 | 1003.6 |
| 20260506154704 | 17 | 222 | 8.0 | 17.7 | 0.00 | 2.54 | 0.20 | 66 | 1003.7 |
| 20260506154604 | 17 | 223 | 6.4 | 17.7 | 0.00 | 2.54 | 0.20 | 66 | 1003.7 |
| 20260506154504 | 17 | 226 | 6.4 | 17.7 | 0.00 | 2.54 | 0.20 | 65 | 1003.7 |
| 20260506154204 | 17 | 238 | 8.0 | 17.7 | 0.00 | 2.54 | 0.20 | 67 | 1003.5 |
| 20260506154104 | 17 | 238 | 8.0 | 17.7 | 0.00 | 2.54 | 0.20 | 67 | 1003.6 |
| 20260506153904 | 17 | 239 | 8.0 | 17.7 | 0.00 | 2.54 | 0.20 | 67 | 1003.5 |
| 20260506153804 | 17 | 237 | 8.0 | 17.7 | 0.00 | 2.54 | 0.20 | 67 | 1003.5 |
| 20260506153704 | 17 | 238 | 8.0 | 16.1 | 0.00 | 2.54 | 0.20 | 67 | 1003.2 |
| 20260506153604 | 17 | 239 | 8.0 | 16.1 | 0.00 | 2.54 | 0.20 | 66 | 1003.5 |
| 20260506153404 | 17 | 238 | 8.0 | 16.1 | 0.00 | 2.54 | 0.20 | 66 | 1003.6 |
| 20260506153304 | 17 | 235 | 8.0 | 16.1 | 0.00 | 2.54 | 0.20 | 66 | 1003.5 |
| 20260506153204 | 17 | 231 | 8.0 | 17.7 | 0.00 | 2.54 | 0.20 | 66 | 1003.6 |
| 20260506153104 | 17 | 228 | 9.7 | 17.7 | 0.00 | 2.54 | 0.20 | 66 | 1003.7 |
| 20260506152904 | 17 | 227 | 9.7 | 20.9 | 0.00 | 2.54 | 0.20 | 66 | 1003.3 |
| 20260506152804 | 17 | 226 | 9.7 | 20.9 | 0.00 | 2.54 | 0.20 | 66 | 1003.5 |
| 20260506152711 | 17 | 222 | 9.7 | 27.4 | 0.00 | 2.54 | 0.20 | 66 | 1003.6 |
| 20260506152704 | 17 | 221 | 9.7 | 27.4 | 0.00 | 2.54 | 0.20 | 66 | 1003.6 |
| 20260506152611 | 17 | 216 | 9.7 | 27.4 | 0.00 | 2.54 | 0.20 | 66 | 1003.5 |
| 20260506152604 | 17 | 215 | 9.7 | 27.4 | 0.00 | 2.54 | 0.20 | 66 | 1003.5 |
| 20260506152311 | 17 | 208 | 11.3 | 27.4 | 0.00 | 2.54 | 0.20 | 66 | 1003.5 |
| 20260506152306 | 17 | 207 | 11.3 | 27.4 | 0.00 | 2.54 | 0.20 | 66 | 1003.5 |
| 20260506152204 | 17 | 205 | 11.3 | 27.4 | 0.00 | 2.54 | 0.20 | 65 | 1003.3 |
| 20260506152004 | 17 | 205 | 11.3 | 27.4 | 0.00 | 2.54 | 0.20 | 66 | 1003.5 |
| 20260506151904 | 17 | 204 | 11.3 | 27.4 | 0.00 | 2.54 | 0.20 | 66 | 1003.5 |
| 20260506151704 | 17 | 204 | 11.3 | 27.4 | 0.00 | 2.54 | 0.20 | 65 | 1003.5 |
| 20260506151612 | 17 | 206 | 11.3 | 25.7 | 0.00 | 2.54 | 0.20 | 65 | 1003.3 |
| 20260506151604 | 17 | 206 | 11.3 | 25.7 | 0.00 | 2.54 | 0.20 | 65 | 1003.3 |
| 20260506151504 | 17 | 206 | 11.3 | 25.7 | 0.00 | 2.54 | 0.20 | 65 | 1003.3 |
| 20260506151304 | 17 | 206 | 11.3 | 25.7 | 0.00 | 2.54 | 0.20 | 64 | 1003.5 |
| 20260506151204 | 17 | 207 | 11.3 | 25.7 | 0.00 | 2.54 | 0.20 | 64 | 1003.5 |
| 20260506151104 | 17 | 209 | 11.3 | 25.7 | 0.00 | 2.54 | 0.20 | 64 | 1003.6 |
| 20260506151006 | 18 | 204 | 11.3 | 25.7 | 0.00 | 2.54 | 0.20 | 64 | 1003.6 |
| 20260506150904 | 18 | 203 | 9.7 | 25.7 | 0.00 | 2.54 | 0.20 | 64 | 1003.5 |
| 20260506150804 | 18 | 206 | 11.3 | 27.4 | 0.00 | 2.54 | 0.20 | 63 | 1003.6 |
| 20260506150704 | 18 | 206 | 9.7 | 27.4 | 0.00 | 2.54 | 0.20 | 62 | 1003.1 |
| 20260506150604 | 18 | 209 | 9.7 | 27.4 | 0.00 | 2.54 | 0.20 | 62 | 1003.5 |
| 20260506150505 | 18 | 211 | 9.7 | 27.4 | 0.00 | 2.54 | 0.20 | 62 | 1003.5 |
| 20260506150404 | 18 | 212 | 11.3 | 27.4 | 0.00 | 2.54 | 0.20 | 61 | 1003.3 |
| 20260506150305 | 18 | 213 | 11.3 | 27.4 | 0.00 | 2.54 | 0.20 | 61 | 1003.2 |
| 20260506150204 | 18 | 217 | 11.3 | 27.4 | 0.00 | 2.54 | 0.20 | 59 | 1003.3 |
| 20260506150104 | 18 | 218 | 11.3 | 27.4 | 0.00 | 2.54 | 0.20 | 59 | 1003.3 |
| 20260506150005 | 18 | 219 | 11.3 | 27.4 | 0.00 | 2.54 | 0.20 | 59 | 1003.2 |
| 20260506145904 | 18 | 220 | 11.3 | 27.4 | 0.00 | 2.54 | 0.20 | 59 | 1003.5 |
| 20260506145804 | 18 | 220 | 9.7 | 24.1 | 0.00 | 2.54 | 0.20 | 60 | 1003.5 |
| 20260506145705 | 18 | 222 | 9.7 | 24.1 | 0.00 | 2.54 | 0.20 | 60 | 1003.6 |
| 20260506145604 | 18 | 217 | 9.7 | 24.1 | 0.00 | 2.54 | 0.20 | 59 | 1003.5 |
| 20260506145504 | 19 | 213 | 9.7 | 24.1 | 0.00 | 2.54 | 0.20 | 59 | 1003.3 |
| 20260506145404 | 19 | 211 | 9.7 | 24.1 | 0.00 | 2.54 | 0.20 | 59 | 1003.5 |
| 20260506145306 | 19 | 206 | 9.7 | 22.5 | 0.00 | 2.54 | 0.20 | 59 | 1003.3 |
| 20260506145204 | 19 | 198 | 8.0 | 22.5 | 0.00 | 2.54 | 0.20 | 60 | 1003.3 |
| 20260506145104 | 19 | 198 | 8.0 | 22.5 | 0.00 | 2.54 | 0.20 | 61 | 1003.5 |
| 20260506145004 | 19 | 199 | 6.4 | 22.5 | 0.00 | 2.54 | 0.20 | 62 | 1003.3 |
| 20260506144904 | 19 | 196 | 6.4 | 16.1 | 0.00 | 2.54 | 0.20 | 62 | 1003.6 |
| 20260506144804 | 18 | 198 | 6.4 | 16.1 | 0.00 | 2.54 | 0.20 | 62 | 1003.2 |
| 20260506144705 | 18 | 197 | 6.4 | 16.1 | 0.00 | 2.54 | 0.20 | 62 | 1003.2 |
| 20260506144604 | 18 | 201 | 4.8 | 16.1 | 0.00 | 2.54 | 0.20 | 62 | 1003.3 |
| 20260506144511 | 18 | 203 | 4.8 | 16.1 | 0.00 | 2.54 | 0.20 | 64 | 1003.3 |
| 20260506144504 | 18 | 202 | 6.4 | 16.1 | 0.00 | 2.54 | 0.20 | 64 | 1003.3 |
| 20260506144404 | 18 | 206 | 6.4 | 16.1 | 0.00 | 2.54 | 0.20 | 64 | 1003.6 |
| 20260506144205 | 18 | 207 | 4.8 | 16.1 | 0.00 | 2.54 | 0.20 | 60 | 1003.5 |
| 20260506144104 | 18 | 210 | 4.8 | 16.1 | 0.00 | 2.54 | 0.20 | 60 | 1003.5 |
| 20260506144004 | 18 | 212 | 6.4 | 16.1 | 0.00 | 2.54 | 0.20 | 61 | 1003.6 |
| 20260506143904 | 18 | 215 | 6.4 | 16.1 | 0.00 | 2.54 | 0.20 | 61 | 1003.3 |
| 20260506143812 | 18 | 224 | 4.8 | 16.1 | 0.00 | 2.54 | 0.20 | 63 | 1003.7 |
| 20260506143805 | 18 | 225 | 4.8 | 16.1 | 0.00 | 2.54 | 0.20 | 63 | 1003.7 |
| 20260506143704 | 18 | 232 | 4.8 | 12.9 | 0.00 | 2.54 | 0.20 | 62 | 1003.6 |
| 20260506143512 | 18 | 276 | 4.8 | 17.7 | 0.00 | 2.54 | 0.20 | 61 | 1003.3 |
| 20260506143504 | 18 | 278 | 4.8 | 17.7 | 0.00 | 2.54 | 0.20 | 61 | 1003.3 |
| 20260506143411 | 18 | 281 | 4.8 | 17.7 | 0.00 | 2.54 | 0.20 | 64 | 1003.6 |
| 20260506143404 | 18 | 281 | 4.8 | 17.7 | 0.00 | 2.54 | 0.20 | 64 | 1003.6 |
| 20260506143104 | 18 | 299 | 8.0 | 17.7 | 0.00 | 2.54 | 0.20 | 60 | 1003.5 |
| 20260506143011 | 18 | 307 | 8.0 | 17.7 | 0.00 | 2.54 | 0.20 | 60 | 1003.6 |
| 20260506143004 | 18 | 309 | 8.0 | 17.7 | 0.00 | 2.54 | 0.20 | 62 | 1003.6 |
| 20260506142911 | 18 | 315 | 8.0 | 17.7 | 0.00 | 2.54 | 0.20 | 62 | 1003.3 |
| 20260506142904 | 18 | 316 | 8.0 | 17.7 | 0.00 | 2.54 | 0.20 | 62 | 1003.3 |
| 20260506142604 | 18 | 336 | 9.7 | 17.7 | 0.00 | 2.54 | 0.20 | 63 | 1003.3 |
| 20260506142505 | 18 | 342 | 9.7 | 17.7 | 0.00 | 2.54 | 0.20 | 65 | 1003.2 |
| 20260506142411 | 18 | 346 | 8.0 | 17.7 | 0.00 | 2.54 | 0.20 | 64 | 1003.3 |
| 20260506142406 | 18 | 345 | 8.0 | 17.7 | 0.00 | 2.54 | 0.20 | 64 | 1003.3 |
| 20260506142306 | 18 | 351 | 8.0 | 17.7 | 0.00 | 2.54 | 0.20 | 64 | 1003.3 |
| 20260506142111 | 18 | 357 | 6.4 | 17.7 | 0.00 | 2.54 | 0.20 | 64 | 1003.3 |
| 20260506142104 | 18 | 358 | 6.4 | 17.7 | 0.00 | 2.54 | 0.20 | 64 | 1003.3 |
| 20260506142004 | 18 | 1 | 4.8 | 17.7 | 0.00 | 2.54 | 0.20 | 64 | 1003.5 |
| 20260506141804 | 18 | 9 | 3.2 | 16.1 | 0.00 | 2.54 | 0.20 | 62 | 1003.3 |
| 20260506141714 | 18 | 9 | 3.2 | 14.5 | 0.00 | 2.54 | 0.20 | 62 | 1003.3 |
| 20260506141705 | 18 | 4 | 3.2 | 14.5 | 0.00 | 2.54 | 0.20 | 64 | 1003.3 |
| 20260506141604 | 18 | 313 | 3.2 | 14.5 | 0.00 | 2.54 | 0.20 | 64 | 1003.6 |
| 20260506141406 | 18 | 229 | 3.2 | 9.7 | 0.00 | 2.54 | 0.20 | 59 | 1003.6 |
| 20260506141304 | 18 | 215 | 3.2 | 14.5 | 0.00 | 2.54 | 0.20 | 61 | 1003.7 |
| 20260506141204 | 18 | 210 | 3.2 | 14.5 | 0.00 | 2.54 | 0.20 | 59 | 1003.8 |
| 20260506141104 | 18 | 205 | 3.2 | 14.5 | 0.00 | 2.54 | 0.20 | 62 | 1003.6 |
| 20260506141004 | 18 | 203 | 3.2 | 14.5 | 0.00 | 2.54 | 0.20 | 60 | 1003.3 |
| 20260506140904 | 18 | 198 | 3.2 | 14.5 | 0.00 | 2.54 | 0.20 | 62 | 1003.5 |
| 20260506140806 | 18 | 194 | 3.2 | 14.5 | 0.00 | 2.54 | 0.20 | 62 | 1003.5 |
| 20260506140704 | 18 | 193 | 3.2 | 14.5 | 0.00 | 2.54 | 0.20 | 63 | 1003.6 |
| 20260506140604 | 18 | 181 | 3.2 | 14.5 | 0.00 | 2.54 | 0.20 | 63 | 1003.6 |
| 20260506140413 | 18 | 135 | 3.2 | 14.5 | 0.00 | 2.54 | 0.20 | 62 | 1003.8 |
| 20260506140406 | 18 | 126 | 3.2 | 14.5 | 0.00 | 2.54 | 0.20 | 62 | 1003.8 |
| 20260506140314 | 18 | 80 | 3.2 | 9.7 | 0.00 | 2.54 | 0.20 | 63 | 1003.7 |
| 20260506140305 | 18 | 75 | 3.2 | 9.7 | 0.00 | 2.54 | 0.20 | 63 | 1003.7 |
| 20260506140007 | 18 | 32 | 3.2 | 9.7 | 0.00 | 2.54 | 0.20 | 65 | 1003.5 |
| 20260506135906 | 18 | 14 | 3.2 | 11.3 | 0.00 | 2.54 | 0.20 | 64 | 1003.6 |
| 20260506135806 | 18 | 13 | 4.8 | 11.3 | 0.00 | 2.54 | 0.20 | 61 | 1003.7 |
| 20260506135711 | 18 | 13 | 4.8 | 11.3 | 0.00 | 2.54 | 0.20 | 61 | 1003.5 |
| 20260506135705 | 18 | 13 | 4.8 | 11.3 | 0.00 | 2.54 | 0.20 | 61 | 1003.5 |
| 20260506135604 | 18 | 9 | 4.8 | 11.3 | 0.00 | 2.54 | 0.20 | 64 | 1003.6 |
| 20260506135404 | 18 | 355 | 3.2 | 11.3 | 0.00 | 2.54 | 0.20 | 64 | 1003.8 |
| 20260506135306 | 18 | 346 | 1.6 | 11.3 | 0.00 | 2.54 | 0.20 | 62 | 1003.7 |
| 20260506135204 | 18 | 342 | 1.6 | 11.3 | 0.00 | 2.54 | 0.20 | 62 | 1003.5 |
| 20260506135104 | 18 | 340 | 1.6 | 11.3 | 0.00 | 2.54 | 0.20 | 62 | 1003.6 |
| 20260506135011 | 18 | 344 | 1.6 | 11.3 | 0.00 | 2.54 | 0.20 | 65 | 1003.9 |
| 20260506135004 | 18 | 348 | 1.6 | 11.3 | 0.00 | 2.54 | 0.20 | 65 | 1003.9 |
| 20260506134904 | 18 | 7 | 1.6 | 11.3 | 0.00 | 2.54 | 0.20 | 63 | 1003.7 |
| 20260506134713 | 18 | 0 | 0.0 | 0.0 | 0.00 | 2.54 | 0.20 | 61 | 1003.8 |
| 20260506134704 | 18 | 243 | 0.0 | 1.6 | 0.00 | 2.54 | 0.20 | 61 | 1003.8 |
| 20260506134604 | 18 | 246 | 0.0 | 9.7 | 0.00 | 2.54 | 0.20 | 61 | 1003.8 |
| 20260506134513 | 18 | 242 | 1.6 | 11.3 | 0.00 | 2.54 | 0.20 | 61 | 1003.7 |
| 20260506134406 | 18 | 242 | 1.6 | 11.3 | 0.00 | 2.54 | 0.20 | 61 | 1003.6 |
| 20260506134205 | 18 | 234 | 3.2 | 12.9 | 0.00 | 2.54 | 0.20 | 58 | 1003.8 |
| 20260506134106 | 18 | 234 | 3.2 | 12.9 | 0.00 | 2.54 | 0.20 | 59 | 1003.5 |
| 20260506133904 | 18 | 234 | 3.2 | 12.9 | 0.00 | 2.54 | 0.20 | 59 | 1003.7 |
| 20260506133804 | 18 | 232 | 3.2 | 12.9 | 0.00 | 2.54 | 0.20 | 57 | 1003.7 |
| 20260506133704 | 18 | 233 | 3.2 | 12.9 | 0.00 | 2.54 | 0.20 | 59 | 1003.6 |
| 20260506133604 | 18 | 235 | 3.2 | 12.9 | 0.00 | 2.54 | 0.20 | 61 | 1003.9 |
| 20260506133404 | 18 | 240 | 4.8 | 14.5 | 0.00 | 2.54 | 0.20 | 62 | 1003.8 |
| 20260506133306 | 18 | 241 | 4.8 | 14.5 | 0.00 | 2.54 | 0.20 | 64 | 1003.8 |
| 20260506133205 | 18 | 238 | 4.8 | 14.5 | 0.00 | 2.54 | 0.20 | 60 | 1003.7 |
| 20260506133104 | 18 | 236 | 4.8 | 14.5 | 0.00 | 2.54 | 0.20 | 60 | 1003.9 |
| 20260506133004 | 18 | 237 | 4.8 | 14.5 | 0.00 | 2.54 | 0.20 | 61 | 1003.7 |
| 20260506132904 | 18 | 238 | 4.8 | 14.5 | 0.00 | 2.54 | 0.20 | 62 | 1003.8 |
| 20260506132811 | 18 | 240 | 4.8 | 14.5 | 0.00 | 2.54 | 0.20 | 62 | 1003.6 |
| 20260506132704 | 18 | 243 | 4.8 | 14.5 | 0.00 | 2.54 | 0.20 | 61 | 1003.7 |
| 20260506132504 | 18 | 236 | 6.4 | 14.5 | 0.00 | 2.54 | 0.20 | 61 | 1003.6 |
| 20260506132404 | 18 | 235 | 4.8 | 14.5 | 0.00 | 2.54 | 0.20 | 62 | 1003.7 |
| 20260506132307 | 18 | 235 | 4.8 | 14.5 | 0.00 | 2.54 | 0.20 | 60 | 1003.8 |
| 20260506132204 | 18 | 238 | 4.8 | 14.5 | 0.00 | 2.54 | 0.20 | 61 | 1003.6 |
| 20260506132106 | 18 | 238 | 4.8 | 14.5 | 0.00 | 2.54 | 0.20 | 61 | 1003.7 |
| 20260506132005 | 18 | 232 | 6.4 | 20.9 | 0.00 | 2.54 | 0.20 | 59 | 1003.8 |
| 20260506131912 | 18 | 227 | 6.4 | 20.9 | 0.00 | 2.54 | 0.20 | 59 | 1003.9 |
| 20260506131904 | 18 | 226 | 6.4 | 20.9 | 0.00 | 2.54 | 0.20 | 59 | 1003.9 |
| 20260506131804 | 18 | 221 | 6.4 | 20.9 | 0.00 | 2.54 | 0.20 | 60 | 1003.9 |
| 20260506131606 | 19 | 209 | 9.7 | 29.0 | 0.00 | 2.54 | 0.20 | 60 | 1003.7 |
| 20260506131504 | 19 | 204 | 9.7 | 29.0 | 0.00 | 2.54 | 0.20 | 59 | 1003.9 |
| 20260506131404 | 19 | 204 | 9.7 | 29.0 | 0.00 | 2.54 | 0.20 | 60 | 1003.7 |
| 20260506131305 | 19 | 201 | 9.7 | 29.0 | 0.00 | 2.54 | 0.20 | 60 | 1003.9 |
| 20260506131206 | 19 | 197 | 9.7 | 29.0 | 0.00 | 2.54 | 0.20 | 58 | 1003.8 |
| 20260506131104 | 19 | 195 | 9.7 | 29.0 | 0.00 | 2.54 | 0.20 | 59 | 1003.9 |
| 20260506131004 | 19 | 198 | 9.7 | 29.0 | 0.00 | 2.54 | 0.20 | 60 | 1003.8 |
| 20260506130904 | 19 | 198 | 9.7 | 29.0 | 0.00 | 2.54 | 0.20 | 58 | 1003.9 |
| 20260506130804 | 19 | 198 | 9.7 | 29.0 | 0.00 | 2.54 | 0.20 | 58 | 1004.1 |
| 20260506130705 | 19 | 201 | 9.7 | 29.0 | 0.00 | 2.54 | 0.20 | 58 | 1003.9 |
| 20260506130604 | 19 | 202 | 8.0 | 20.9 | 0.00 | 2.54 | 0.20 | 60 | 1003.8 |
| 20260506130504 | 19 | 206 | 8.0 | 17.7 | 0.00 | 2.54 | 0.20 | 61 | 1003.9 |
| 20260506130404 | 19 | 206 | 8.0 | 17.7 | 0.00 | 2.54 | 0.20 | 60 | 1003.9 |
| 20260506130304 | 19 | 205 | 8.0 | 17.7 | 0.00 | 2.54 | 0.20 | 60 | 1003.7 |
| 20260506130204 | 19 | 207 | 8.0 | 17.7 | 0.00 | 2.54 | 0.20 | 58 | 1003.8 |
| 20260506130104 | 19 | 206 | 8.0 | 17.7 | 0.00 | 2.54 | 0.20 | 59 | 1003.9 |
| 20260506130006 | 19 | 206 | 9.7 | 22.5 | 0.00 | 2.54 | 0.20 | 58 | 1003.8 |
| 20260506125904 | 19 | 208 | 9.7 | 24.1 | 0.00 | 2.54 | 0.20 | 57 | 1003.8 |
| 20260506125804 | 19 | 209 | 9.7 | 24.1 | 0.00 | 2.54 | 0.20 | 58 | 1003.8 |
| 20260506125705 | 19 | 208 | 9.7 | 24.1 | 0.00 | 2.54 | 0.20 | 57 | 1003.9 |
| 20260506125604 | 19 | 206 | 11.3 | 25.7 | 0.00 | 2.54 | 0.20 | 57 | 1004.0 |
| 20260506125504 | 20 | 206 | 11.3 | 25.7 | 0.00 | 2.54 | 0.20 | 57 | 1003.9 |
| 20260506125405 | 20 | 201 | 11.3 | 25.7 | 0.00 | 2.54 | 0.20 | 57 | 1004.0 |
| 20260506125305 | 20 | 205 | 11.3 | 25.7 | 0.00 | 2.54 | 0.20 | 56 | 1003.9 |
| 20260506125204 | 20 | 207 | 12.9 | 25.7 | 0.00 | 2.54 | 0.20 | 57 | 1004.0 |
| 20260506125111 | 20 | 210 | 12.9 | 27.4 | 0.00 | 2.54 | 0.20 | 57 | 1004.0 |
| 20260506125104 | 20 | 211 | 14.5 | 27.4 | 0.00 | 2.54 | 0.20 | 57 | 1004.0 |
| 20260506125004 | 20 | 212 | 14.5 | 27.4 | 0.00 | 2.54 | 0.20 | 58 | 1003.8 |
| 20260506124804 | 19 | 213 | 12.9 | 27.4 | 0.00 | 2.54 | 0.20 | 57 | 1003.9 |
| 20260506124704 | 19 | 212 | 12.9 | 27.4 | 0.00 | 2.54 | 0.20 | 58 | 1004.0 |
| 20260506124604 | 19 | 216 | 12.9 | 27.4 | 0.00 | 2.54 | 0.20 | 58 | 1004.0 |
| 20260506124511 | 19 | 214 | 14.5 | 27.4 | 0.00 | 2.54 | 0.20 | 58 | 1004.0 |
| 20260506124504 | 19 | 215 | 14.5 | 27.4 | 0.00 | 2.54 | 0.20 | 58 | 1004.0 |
| 20260506124404 | 18 | 218 | 14.5 | 27.4 | 0.00 | 2.54 | 0.20 | 58 | 1004.0 |
| 20260506124204 | 18 | 222 | 12.9 | 27.4 | 0.00 | 2.54 | 0.20 | 59 | 1004.0 |
| 20260506124105 | 18 | 223 | 12.9 | 25.7 | 0.00 | 2.54 | 0.20 | 59 | 1003.8 |
| 20260506124004 | 18 | 225 | 11.3 | 25.7 | 0.00 | 2.54 | 0.20 | 60 | 1003.9 |
| 20260506123904 | 18 | 225 | 11.3 | 25.7 | 0.00 | 2.54 | 0.20 | 60 | 1003.9 |
| 20260506123804 | 18 | 224 | 12.9 | 25.7 | 0.00 | 2.54 | 0.20 | 60 | 1004.0 |
| 20260506123704 | 18 | 228 | 11.3 | 25.7 | 0.00 | 2.54 | 0.20 | 60 | 1003.9 |
| 20260506123504 | 18 | 232 | 11.3 | 25.7 | 0.00 | 2.54 | 0.20 | 60 | 1004.0 |
| 20260506123404 | 18 | 232 | 11.3 | 22.5 | 0.00 | 2.54 | 0.20 | 63 | 1003.9 |
| 20260506123304 | 18 | 233 | 11.3 | 22.5 | 0.00 | 2.54 | 0.20 | 63 | 1003.8 |
| 20260506123211 | 18 | 232 | 11.3 | 25.7 | 0.00 | 2.54 | 0.20 | 63 | 1003.8 |
| 20260506123204 | 18 | 231 | 11.3 | 25.7 | 0.00 | 2.54 | 0.20 | 63 | 1003.8 |
| 20260506123105 | 18 | 228 | 12.9 | 25.7 | 0.00 | 2.54 | 0.20 | 62 | 1004.1 |
| 20260506122904 | 18 | 224 | 12.9 | 25.7 | 0.00 | 2.54 | 0.20 | 62 | 1004.1 |
| 20260506122804 | 18 | 221 | 12.9 | 25.7 | 0.00 | 2.54 | 0.20 | 59 | 1003.8 |
| 20260506122711 | 18 | 221 | 12.9 | 25.7 | 0.00 | 2.54 | 0.20 | 62 | 1004.1 |
| 20260506122704 | 18 | 220 | 12.9 | 25.7 | 0.00 | 2.54 | 0.20 | 62 | 1004.1 |
| 20260506122604 | 18 | 221 | 12.9 | 25.7 | 0.00 | 2.54 | 0.20 | 63 | 1004.0 |
| 20260506122404 | 18 | 227 | 12.9 | 25.7 | 0.00 | 2.54 | 0.20 | 60 | 1004.0 |
| 20260506122306 | 19 | 226 | 12.9 | 25.7 | 0.00 | 2.54 | 0.20 | 61 | 1003.9 |
| 20260506122204 | 19 | 225 | 12.9 | 24.1 | 0.00 | 2.54 | 0.20 | 61 | 1004.0 |
| 20260506122104 | 19 | 229 | 11.3 | 22.5 | 0.00 | 2.54 | 0.20 | 60 | 1004.1 |
| 20260506122004 | 18 | 231 | 11.3 | 22.5 | 0.00 | 2.54 | 0.20 | 61 | 1004.0 |
| 20260506121904 | 18 | 233 | 9.7 | 22.5 | 0.00 | 2.54 | 0.20 | 61 | 1004.0 |
| 20260506121804 | 18 | 237 | 9.7 | 20.9 | 0.00 | 2.54 | 0.20 | 61 | 1003.9 |
| 20260506121704 | 18 | 238 | 8.0 | 17.7 | 0.00 | 2.54 | 0.20 | 63 | 1003.9 |
| 20260506121605 | 18 | 237 | 8.0 | 17.7 | 0.00 | 2.54 | 0.20 | 62 | 1003.8 |
| 20260506121504 | 18 | 235 | 9.7 | 22.5 | 0.00 | 2.54 | 0.20 | 60 | 1003.9 |
| 20260506121404 | 18 | 228 | 8.0 | 22.5 | 0.00 | 2.54 | 0.20 | 62 | 1003.9 |
| 20260506121304 | 18 | 229 | 8.0 | 22.5 | 0.00 | 2.54 | 0.20 | 63 | 1004.1 |
| 20260506121211 | 18 | 229 | 8.0 | 22.5 | 0.00 | 2.54 | 0.20 | 64 | 1004.1 |
| 20260506121204 | 18 | 229 | 8.0 | 22.5 | 0.00 | 2.54 | 0.20 | 64 | 1004.1 |
| 20260506121111 | 18 | 230 | 8.0 | 22.5 | 0.00 | 2.54 | 0.20 | 63 | 1004.0 |
| 20260506121105 | 18 | 231 | 8.0 | 22.5 | 0.00 | 2.54 | 0.20 | 63 | 1004.0 |
| 20260506120804 | 18 | 235 | 9.7 | 22.5 | 0.00 | 2.54 | 0.20 | 62 | 1004.0 |
| 20260506120704 | 18 | 235 | 9.7 | 22.5 | 0.00 | 2.54 | 0.20 | 62 | 1003.9 |
| 20260506120611 | 18 | 237 | 9.7 | 22.5 | 0.00 | 2.54 | 0.20 | 62 | 1003.9 |
| 20260506120605 | 18 | 238 | 9.7 | 22.5 | 0.00 | 2.54 | 0.20 | 64 | 1003.9 |
| 20260506120504 | 18 | 238 | 9.7 | 20.9 | 0.00 | 2.54 | 0.20 | 64 | 1003.9 |
| 20260506120304 | 18 | 235 | 9.7 | 20.9 | 0.00 | 2.54 | 0.20 | 62 | 1003.9 |
| 20260506120204 | 18 | 234 | 9.7 | 20.9 | 0.00 | 2.54 | 0.20 | 62 | 1003.8 |
| 20260506120105 | 18 | 231 | 9.7 | 20.9 | 0.00 | 2.54 | 0.20 | 61 | 1003.9 |
| 20260506120005 | 18 | 228 | 11.3 | 24.1 | 0.00 | 2.54 | 0.20 | 62 | 1003.8 |
| 20260506115904 | 18 | 232 | 11.3 | 24.1 | 0.00 | 2.54 | 0.20 | 61 | 1003.9 |
| 20260506115804 | 18 | 236 | 11.3 | 27.4 | 0.00 | 2.54 | 0.20 | 64 | 1003.9 |
| 20260506115704 | 18 | 237 | 11.3 | 27.4 | 0.00 | 2.54 | 0.20 | 63 | 1004.1 |
| 20260506115604 | 18 | 235 | 11.3 | 27.4 | 0.00 | 2.54 | 0.20 | 62 | 1004.0 |
| 20260506115504 | 18 | 233 | 12.9 | 27.4 | 0.00 | 2.54 | 0.20 | 61 | 1004.0 |
| 20260506115411 | 18 | 233 | 12.9 | 27.4 | 0.00 | 2.54 | 0.20 | 61 | 1004.0 |
| 20260506115404 | 18 | 234 | 12.9 | 27.4 | 0.00 | 2.54 | 0.20 | 61 | 1004.0 |
| 20260506115307 | 18 | 233 | 12.9 | 27.4 | 0.00 | 2.54 | 0.20 | 63 | 1004.0 |
| 20260506115111 | 18 | 235 | 12.9 | 27.4 | 0.00 | 2.54 | 0.20 | 61 | 1004.0 |
| 20260506115004 | 18 | 239 | 11.3 | 27.4 | 0.00 | 2.54 | 0.20 | 62 | 1003.9 |
| 20260506114804 | 18 | 229 | 9.7 | 22.5 | 0.00 | 2.54 | 0.20 | 61 | 1004.1 |
| 20260506114705 | 18 | 228 | 9.7 | 22.5 | 0.00 | 2.54 | 0.20 | 62 | 1003.9 |
| 20260506114505 | 18 | 229 | 8.0 | 22.5 | 0.00 | 2.54 | 0.20 | 61 | 1004.0 |
| 20260506114404 | 18 | 233 | 9.7 | 22.5 | 0.00 | 2.54 | 0.20 | 61 | 1004.0 |
| 20260506114304 | 18 | 238 | 9.7 | 20.9 | 0.00 | 2.54 | 0.20 | 64 | 1003.9 |
| 20260506114104 | 18 | 235 | 9.7 | 20.9 | 0.00 | 2.54 | 0.20 | 62 | 1003.7 |
| 20260506114005 | 18 | 231 | 8.0 | 20.9 | 0.00 | 2.54 | 0.20 | 65 | 1003.9 |
| 20260506113904 | 18 | 231 | 8.0 | 20.9 | 0.00 | 2.54 | 0.20 | 63 | 1004.0 |
| 20260506113704 | 18 | 229 | 9.7 | 22.5 | 0.00 | 2.54 | 0.20 | 63 | 1003.8 |
| 20260506113604 | 18 | 221 | 9.7 | 22.5 | 0.00 | 2.54 | 0.20 | 62 | 1003.9 |
| 20260506113304 | 18 | 205 | 9.7 | 22.5 | 0.00 | 2.54 | 0.20 | 64 | 1004.0 |
| 20260506113204 | 18 | 205 | 8.0 | 22.5 | 0.00 | 2.54 | 0.20 | 64 | 1003.8 |
| 20260506113104 | 18 | 207 | 9.7 | 22.5 | 0.00 | 2.54 | 0.20 | 63 | 1004.0 |
| 20260506113004 | 18 | 205 | 9.7 | 22.5 | 0.00 | 2.54 | 0.20 | 63 | 1004.0 |
| 20260506112911 | 18 | 207 | 9.7 | 22.5 | 0.00 | 2.54 | 0.20 | 62 | 1004.1 |
| 20260506112904 | 18 | 208 | 11.3 | 22.5 | 0.00 | 2.54 | 0.20 | 62 | 1004.1 |
| 20260506112804 | 18 | 208 | 11.3 | 22.5 | 0.00 | 2.54 | 0.20 | 63 | 1004.1 |
| 20260506112604 | 18 | 220 | 9.7 | 22.5 | 0.00 | 2.54 | 0.20 | 63 | 1003.8 |
| 20260506112504 | 18 | 225 | 9.7 | 22.5 | 0.00 | 2.54 | 0.20 | 66 | 1004.1 |
| 20260506112404 | 18 | 230 | 9.7 | 22.5 | 0.00 | 2.54 | 0.20 | 66 | 1004.1 |
| 20260506112306 | 18 | 227 | 9.7 | 22.5 | 0.00 | 2.54 | 0.20 | 65 | 1004.1 |
| 20260506112204 | 18 | 227 | 9.7 | 22.5 | 0.00 | 2.54 | 0.20 | 64 | 1003.9 |
| 20260506112104 | 18 | 225 | 9.7 | 22.5 | 0.00 | 2.54 | 0.20 | 63 | 1003.9 |
| 20260506112004 | 18 | 226 | 9.7 | 22.5 | 0.00 | 2.54 | 0.20 | 63 | 1003.9 |
| 20260506111904 | 18 | 222 | 9.7 | 22.5 | 0.00 | 2.54 | 0.20 | 63 | 1004.0 |
| 20260506111811 | 18 | 220 | 9.7 | 22.5 | 0.00 | 2.54 | 0.20 | 63 | 1004.0 |
| 20260506111704 | 18 | 216 | 9.7 | 22.5 | 0.00 | 2.54 | 0.20 | 63 | 1004.1 |
| 20260506111504 | 18 | 212 | 8.0 | 17.7 | 0.00 | 2.54 | 0.20 | 61 | 1004.2 |
| 20260506111404 | 18 | 212 | 8.0 | 17.7 | 0.00 | 2.54 | 0.20 | 61 | 1004.1 |
| 20260506111304 | 19 | 214 | 8.0 | 16.1 | 0.00 | 2.54 | 0.20 | 60 | 1004.1 |
| 20260506111204 | 19 | 215 | 8.0 | 16.1 | 0.00 | 2.54 | 0.20 | 60 | 1003.9 |
| 20260506111104 | 19 | 214 | 8.0 | 16.1 | 0.00 | 2.54 | 0.20 | 60 | 1004.1 |
| 20260506111004 | 19 | 215 | 8.0 | 20.9 | 0.00 | 2.54 | 0.20 | 62 | 1004.1 |
| 20260506110904 | 19 | 215 | 9.7 | 20.9 | 0.00 | 2.54 | 0.20 | 62 | 1004.0 |
| 20260506110804 | 19 | 214 | 9.7 | 20.9 | 0.00 | 2.54 | 0.20 | 62 | 1004.0 |
| 20260506110704 | 19 | 214 | 9.7 | 27.4 | 0.00 | 2.54 | 0.20 | 63 | 1004.1 |
| 20260506110604 | 19 | 213 | 9.7 | 27.4 | 0.00 | 2.54 | 0.20 | 62 | 1004.2 |
| 20260506110504 | 19 | 212 | 11.3 | 27.4 | 0.00 | 2.54 | 0.20 | 61 | 1004.1 |
| 20260506110404 | 19 | 212 | 11.3 | 27.4 | 0.00 | 2.54 | 0.20 | 62 | 1004.1 |
| 20260506110304 | 19 | 211 | 11.3 | 27.4 | 0.00 | 2.54 | 0.20 | 61 | 1004.1 |
| 20260506110204 | 19 | 209 | 11.3 | 27.4 | 0.00 | 2.54 | 0.20 | 61 | 1004.2 |
| 20260506110111 | 19 | 210 | 12.9 | 27.4 | 0.00 | 2.54 | 0.20 | 61 | 1004.0 |
| 20260506110104 | 19 | 211 | 12.9 | 27.4 | 0.00 | 2.54 | 0.20 | 61 | 1004.0 |
| 20260506110005 | 19 | 211 | 12.9 | 27.4 | 0.00 | 2.54 | 0.20 | 61 | 1004.1 |
| 20260506105804 | 18 | 213 | 12.9 | 27.4 | 0.00 | 2.54 | 0.20 | 61 | 1004.1 |
| 20260506105704 | 18 | 214 | 11.3 | 27.4 | 0.00 | 2.54 | 0.20 | 63 | 1003.8 |
| 20260506105604 | 18 | 213 | 11.3 | 27.4 | 0.00 | 2.54 | 0.20 | 63 | 1003.9 |
| 20260506105504 | 18 | 215 | 11.3 | 27.4 | 0.00 | 2.54 | 0.20 | 63 | 1004.0 |
| 20260506105404 | 18 | 217 | 11.3 | 27.4 | 0.00 | 2.54 | 0.20 | 62 | 1004.0 |
| 20260506105305 | 18 | 217 | 11.3 | 27.4 | 0.00 | 2.54 | 0.20 | 63 | 1004.0 |
| 20260506105204 | 18 | 219 | 9.7 | 27.4 | 0.00 | 2.54 | 0.20 | 63 | 1004.0 |
| 20260506105104 | 18 | 217 | 9.7 | 27.4 | 0.00 | 2.54 | 0.20 | 62 | 1004.1 |
| 20260506105011 | 18 | 218 | 9.7 | 27.4 | 0.00 | 2.54 | 0.20 | 63 | 1003.9 |
| 20260506105004 | 18 | 219 | 9.7 | 27.4 | 0.00 | 2.54 | 0.20 | 63 | 1003.9 |
| 20260506104911 | 18 | 219 | 8.0 | 24.1 | 0.00 | 2.54 | 0.20 | 62 | 1003.9 |
| 20260506104904 | 18 | 220 | 8.0 | 20.9 | 0.00 | 2.54 | 0.20 | 62 | 1003.9 |
| 20260506104604 | 18 | 218 | 9.7 | 22.5 | 0.00 | 2.54 | 0.20 | 63 | 1003.9 |
| 20260506104504 | 18 | 215 | 9.7 | 22.5 | 0.00 | 2.54 | 0.20 | 62 | 1003.9 |
| 20260506104404 | 18 | 214 | 9.7 | 22.5 | 0.00 | 2.54 | 0.20 | 63 | 1004.2 |
| 20260506104305 | 18 | 215 | 9.7 | 30.6 | 0.00 | 2.54 | 0.20 | 61 | 1004.1 |
| 20260506104204 | 18 | 213 | 9.7 | 30.6 | 0.00 | 2.54 | 0.20 | 64 | 1004.0 |
| 20260506104104 | 18 | 213 | 9.7 | 30.6 | 0.00 | 2.54 | 0.20 | 60 | 1004.0 |
| 20260506103904 | 18 | 212 | 9.7 | 30.6 | 0.00 | 2.54 | 0.20 | 62 | 1004.0 |
| 20260506103804 | 18 | 215 | 9.7 | 30.6 | 0.00 | 2.54 | 0.20 | 65 | 1003.8 |
| 20260506103704 | 18 | 213 | 9.7 | 30.6 | 0.00 | 2.54 | 0.20 | 64 | 1004.0 |
| 20260506103604 | 18 | 213 | 9.7 | 30.6 | 0.00 | 2.54 | 0.20 | 62 | 1004.1 |
| 20260506103504 | 18 | 216 | 9.7 | 30.6 | 0.00 | 2.54 | 0.20 | 64 | 1004.0 |
| 20260506103404 | 18 | 216 | 9.7 | 30.6 | 0.00 | 2.54 | 0.20 | 65 | 1004.2 |
| 20260506103304 | 18 | 213 | 9.7 | 22.5 | 0.00 | 2.54 | 0.20 | 65 | 1003.9 |
| 20260506103204 | 17 | 212 | 9.7 | 22.5 | 0.00 | 2.54 | 0.20 | 65 | 1003.9 |
| 20260506103104 | 17 | 211 | 11.3 | 25.7 | 0.00 | 2.54 | 0.20 | 64 | 1004.3 |
| 20260506103004 | 17 | 211 | 11.3 | 25.7 | 0.00 | 2.54 | 0.20 | 64 | 1004.1 |
| 20260506102904 | 17 | 209 | 11.3 | 25.7 | 0.00 | 2.54 | 0.20 | 64 | 1004.3 |
| 20260506102804 | 17 | 206 | 11.3 | 25.7 | 0.00 | 2.54 | 0.20 | 65 | 1004.3 |
| 20260506102704 | 17 | 208 | 11.3 | 33.8 | 0.00 | 2.54 | 0.20 | 66 | 1004.3 |
| 20260506102611 | 17 | 207 | 11.3 | 33.8 | 0.00 | 2.54 | 0.20 | 66 | 1004.4 |
| 20260506102604 | 17 | 207 | 11.3 | 33.8 | 0.00 | 2.54 | 0.20 | 66 | 1004.4 |
| 20260506102504 | 17 | 202 | 11.3 | 33.8 | 0.00 | 2.54 | 0.20 | 67 | 1004.5 |
| 20260506102204 | 17 | 200 | 12.9 | 33.8 | 0.00 | 2.54 | 0.20 | 67 | 1004.4 |
| 20260506102104 | 17 | 197 | 12.9 | 35.4 | 0.00 | 2.54 | 0.20 | 68 | 1004.5 |
| 20260506102004 | 17 | 197 | 12.9 | 35.4 | 0.00 | 2.54 | 0.20 | 65 | 1004.4 |
| 20260506101904 | 17 | 196 | 14.5 | 35.4 | 0.00 | 2.54 | 0.20 | 66 | 1004.4 |
| 20260506101811 | 17 | 196 | 14.5 | 35.4 | 0.00 | 2.54 | 0.20 | 66 | 1004.4 |
| 20260506101804 | 17 | 196 | 14.5 | 35.4 | 0.00 | 2.54 | 0.20 | 66 | 1004.4 |
| 20260506101704 | 17 | 194 | 14.5 | 35.4 | 0.00 | 2.54 | 0.20 | 66 | 1004.5 |
| 20260506101504 | 17 | 198 | 14.5 | 35.4 | 0.00 | 2.54 | 0.20 | 67 | 1004.5 |
| 20260506101411 | 17 | 199 | 16.1 | 35.4 | 0.00 | 2.54 | 0.20 | 67 | 1004.4 |
| 20260506101404 | 17 | 199 | 16.1 | 35.4 | 0.00 | 2.54 | 0.20 | 68 | 1004.4 |
| 20260506101304 | 17 | 200 | 16.1 | 35.4 | 0.00 | 2.54 | 0.20 | 68 | 1004.4 |
| 20260506101104 | 17 | 202 | 16.1 | 35.4 | 0.00 | 2.54 | 0.20 | 66 | 1004.3 |
| 20260506101004 | 17 | 205 | 16.1 | 27.4 | 0.00 | 2.54 | 0.20 | 66 | 1004.3 |
| 20260506100904 | 17 | 205 | 16.1 | 27.4 | 0.00 | 2.54 | 0.20 | 66 | 1004.3 |
| 20260506100804 | 17 | 202 | 14.5 | 27.4 | 0.00 | 2.54 | 0.20 | 67 | 1004.3 |
| 20260506100704 | 17 | 202 | 14.5 | 27.4 | 0.00 | 2.54 | 0.20 | 66 | 1004.4 |
| 20260506100504 | 17 | 199 | 12.9 | 27.4 | 0.00 | 2.54 | 0.20 | 66 | 1004.5 |
| 20260506100404 | 17 | 200 | 12.9 | 27.4 | 0.00 | 2.54 | 0.20 | 67 | 1004.4 |
| 20260506100304 | 17 | 197 | 11.3 | 24.1 | 0.00 | 2.54 | 0.20 | 67 | 1004.3 |
| 20260506100005 | 17 | 195 | 11.3 | 22.5 | 0.00 | 2.54 | 0.20 | 68 | 1004.3 |
| 20260506095904 | 17 | 195 | 9.7 | 17.7 | 0.00 | 2.54 | 0.20 | 68 | 1004.4 |
| 20260506095804 | 17 | 198 | 9.7 | 17.7 | 0.00 | 2.54 | 0.20 | 68 | 1004.5 |
| 20260506095604 | 17 | 206 | 9.7 | 20.9 | 0.00 | 2.54 | 0.20 | 67 | 1004.3 |
| 20260506095505 | 17 | 208 | 9.7 | 20.9 | 0.00 | 2.54 | 0.20 | 68 | 1004.5 |
| 20260506095404 | 17 | 213 | 9.7 | 20.9 | 0.00 | 2.54 | 0.20 | 68 | 1004.4 |
| 20260506095305 | 17 | 216 | 9.7 | 20.9 | 0.00 | 2.54 | 0.20 | 67 | 1004.3 |
| 20260506095204 | 17 | 220 | 9.7 | 24.1 | 0.00 | 2.54 | 0.20 | 69 | 1004.3 |
| 20260506095104 | 17 | 220 | 8.0 | 24.1 | 0.00 | 2.54 | 0.20 | 69 | 1004.3 |
| 20260506095004 | 17 | 222 | 8.0 | 24.1 | 0.00 | 2.54 | 0.20 | 69 | 1004.4 |
| 20260506094904 | 17 | 225 | 9.7 | 24.1 | 0.00 | 2.54 | 0.20 | 68 | 1004.3 |
| 20260506094811 | 17 | 226 | 9.7 | 24.1 | 0.00 | 2.54 | 0.20 | 69 | 1004.4 |
| 20260506094804 | 17 | 226 | 9.7 | 24.1 | 0.00 | 2.54 | 0.20 | 69 | 1004.4 |
| 20260506094704 | 17 | 226 | 9.7 | 24.1 | 0.00 | 2.54 | 0.20 | 68 | 1004.4 |
| 20260506094504 | 17 | 223 | 9.7 | 24.1 | 0.00 | 2.54 | 0.20 | 71 | 1004.5 |
| 20260506094404 | 16 | 222 | 9.7 | 24.1 | 0.00 | 2.54 | 0.20 | 71 | 1004.3 |
| 20260506094304 | 16 | 219 | 9.7 | 24.1 | 0.00 | 2.54 | 0.20 | 70 | 1004.5 |
| 20260506094104 | 16 | 214 | 9.7 | 24.1 | 0.00 | 2.54 | 0.20 | 69 | 1004.2 |
| 20260506094005 | 16 | 216 | 9.7 | 24.1 | 0.00 | 2.54 | 0.20 | 70 | 1004.2 |
| 20260506093904 | 16 | 219 | 9.7 | 24.1 | 0.00 | 2.54 | 0.20 | 70 | 1004.3 |
| 20260506093804 | 16 | 220 | 9.7 | 24.1 | 0.00 | 2.54 | 0.20 | 72 | 1004.2 |
| 20260506093704 | 16 | 221 | 8.0 | 24.1 | 0.00 | 2.54 | 0.20 | 72 | 1004.3 |
| 20260506093604 | 16 | 217 | 9.7 | 22.5 | 0.00 | 2.54 | 0.20 | 72 | 1004.2 |
| 20260506093504 | 16 | 220 | 9.7 | 22.5 | 0.00 | 2.54 | 0.20 | 72 | 1004.3 |
| 20260506093404 | 15 | 220 | 11.3 | 29.0 | 0.00 | 2.54 | 0.20 | 72 | 1004.2 |
| 20260506093311 | 16 | 222 | 11.3 | 29.0 | 0.00 | 2.54 | 0.20 | 72 | 1004.1 |
| 20260506093304 | 16 | 224 | 11.3 | 29.0 | 0.00 | 2.54 | 0.20 | 72 | 1004.1 |
| 20260506093204 | 15 | 228 | 12.9 | 29.0 | 0.00 | 2.54 | 0.20 | 73 | 1004.2 |
| 20260506093004 | 16 | 233 | 12.9 | 29.0 | 0.00 | 2.54 | 0.20 | 71 | 1004.1 |
| 20260506092904 | 15 | 231 | 14.5 | 29.0 | 0.00 | 2.54 | 0.20 | 71 | 1004.1 |
| 20260506092804 | 16 | 231 | 14.5 | 33.8 | 0.00 | 2.54 | 0.20 | 71 | 1004.1 |
| 20260506092704 | 15 | 230 | 16.1 | 33.8 | 0.00 | 2.54 | 0.20 | 70 | 1004.0 |
| 20260506092604 | 15 | 232 | 16.1 | 33.8 | 0.00 | 2.54 | 0.20 | 70 | 1004.1 |
| 20260506092504 | 15 | 234 | 16.1 | 33.8 | 0.00 | 2.54 | 0.20 | 70 | 1004.2 |
| 20260506092404 | 15 | 237 | 14.5 | 33.8 | 0.00 | 2.54 | 0.20 | 70 | 1004.0 |
| 20260506092306 | 15 | 235 | 14.5 | 33.8 | 0.00 | 2.54 | 0.20 | 71 | 1004.1 |
| 20260506092204 | 15 | 234 | 14.5 | 33.8 | 0.00 | 2.54 | 0.20 | 72 | 1004.3 |
| 20260506092104 | 15 | 234 | 14.5 | 33.8 | 0.00 | 2.54 | 0.20 | 72 | 1004.0 |
| 20260506092004 | 15 | 229 | 16.1 | 33.8 | 0.00 | 2.54 | 0.20 | 70 | 1004.0 |
| 20260506091904 | 16 | 228 | 16.1 | 33.8 | 0.00 | 2.54 | 0.20 | 70 | 1004.0 |
| 20260506091804 | 16 | 227 | 14.5 | 33.8 | 0.00 | 2.54 | 0.20 | 70 | 1004.0 |
| 20260506091704 | 16 | 227 | 14.5 | 30.6 | 0.00 | 2.54 | 0.20 | 72 | 1004.2 |
| 20260506091605 | 16 | 226 | 12.9 | 30.6 | 0.00 | 2.54 | 0.20 | 70 | 1004.1 |
| 20260506091504 | 16 | 225 | 12.9 | 30.6 | 0.00 | 2.54 | 0.20 | 69 | 1004.0 |
| 20260506091404 | 16 | 222 | 12.9 | 30.6 | 0.00 | 2.54 | 0.20 | 70 | 1004.0 |
| 20260506091304 | 16 | 224 | 12.9 | 30.6 | 0.00 | 2.54 | 0.20 | 69 | 1004.2 |
| 20260506091104 | 16 | 222 | 12.9 | 30.6 | 0.00 | 2.54 | 0.20 | 70 | 1004.0 |
| 20260506091004 | 16 | 224 | 12.9 | 24.1 | 0.00 | 2.54 | 0.20 | 70 | 1003.9 |
| 20260506090904 | 16 | 224 | 12.9 | 24.1 | 0.00 | 2.54 | 0.20 | 69 | 1004.1 |
| 20260506090804 | 16 | 221 | 14.5 | 27.4 | 0.00 | 2.54 | 0.20 | 69 | 1004.0 |
| 20260506090704 | 16 | 222 | 12.9 | 27.4 | 0.00 | 2.54 | 0.20 | 72 | 1004.0 |
| 20260506090611 | 16 | 224 | 14.5 | 27.4 | 0.00 | 2.54 | 0.20 | 71 | 1003.8 |
| 20260506090504 | 16 | 221 | 14.5 | 27.4 | 0.00 | 2.54 | 0.20 | 71 | 1003.9 |
| 20260506090312 | 16 | 218 | 12.9 | 27.4 | 0.00 | 2.54 | 0.20 | 70 | 1004.0 |
| 20260506090304 | 16 | 217 | 12.9 | 27.4 | 0.00 | 2.54 | 0.20 | 70 | 1004.0 |
| 20260506090204 | 16 | 215 | 12.9 | 27.4 | 0.00 | 2.54 | 0.20 | 69 | 1004.0 |
| 20260506090005 | 16 | 215 | 11.3 | 27.4 | 0.00 | 2.54 | 0.20 | 69 | 1004.1 |
| 20260506085904 | 16 | 218 | 12.9 | 27.4 | 0.00 | 2.54 | 0.20 | 71 | 1003.8 |
| 20260506085804 | 16 | 222 | 12.9 | 24.1 | 0.00 | 2.54 | 0.20 | 70 | 1003.8 |
| 20260506085704 | 16 | 223 | 12.9 | 25.7 | 0.00 | 2.54 | 0.20 | 71 | 1003.8 |
| 20260506085611 | 16 | 223 | 12.9 | 25.7 | 0.00 | 2.54 | 0.20 | 71 | 1003.9 |
| 20260506085604 | 16 | 221 | 12.9 | 25.7 | 0.00 | 2.54 | 0.20 | 71 | 1003.9 |
| 20260506085504 | 16 | 218 | 12.9 | 25.7 | 0.00 | 2.54 | 0.20 | 71 | 1003.7 |
| 20260506085413 | 16 | 218 | 12.9 | 25.7 | 0.00 | 2.54 | 0.20 | 71 | 1003.8 |
| 20260506085306 | 16 | 219 | 14.5 | 25.7 | 0.00 | 2.54 | 0.20 | 71 | 1003.9 |
| 20260506085004 | 15 | 220 | 16.1 | 25.7 | 0.00 | 2.54 | 0.20 | 71 | 1003.9 |
| 20260506084904 | 15 | 219 | 16.1 | 25.7 | 0.00 | 2.54 | 0.20 | 71 | 1004.0 |
| 20260506084805 | 15 | 223 | 16.1 | 25.7 | 0.00 | 2.54 | 0.20 | 72 | 1003.8 |
| 20260506084712 | 15 | 224 | 16.1 | 25.7 | 0.00 | 2.54 | 0.20 | 72 | 1004.0 |
| 20260506084705 | 15 | 224 | 16.1 | 25.7 | 0.00 | 2.54 | 0.20 | 72 | 1004.0 |
| 20260506084604 | 15 | 225 | 16.1 | 25.7 | 0.00 | 2.54 | 0.20 | 71 | 1003.9 |
| 20260506084406 | 15 | 229 | 16.1 | 30.6 | 0.00 | 2.54 | 0.20 | 73 | 1004.0 |
| 20260506084304 | 15 | 229 | 16.1 | 30.6 | 0.00 | 2.54 | 0.20 | 73 | 1003.9 |
| 20260506084204 | 15 | 227 | 16.1 | 30.6 | 0.00 | 2.54 | 0.20 | 73 | 1003.8 |
| 20260506084104 | 15 | 227 | 16.1 | 30.6 | 0.00 | 2.54 | 0.20 | 72 | 1003.9 |
| 20260506084004 | 15 | 225 | 14.5 | 30.6 | 0.00 | 2.54 | 0.20 | 73 | 1003.8 |
| 20260506083904 | 15 | 224 | 14.5 | 30.6 | 0.00 | 2.54 | 0.20 | 72 | 1003.8 |
| 20260506083704 | 15 | 222 | 16.1 | 35.4 | 0.00 | 2.54 | 0.20 | 74 | 1003.7 |
| 20260506083605 | 15 | 222 | 16.1 | 35.4 | 0.00 | 2.54 | 0.20 | 73 | 1003.9 |
| 20260506083404 | 15 | 219 | 16.1 | 35.4 | 0.00 | 2.54 | 0.20 | 75 | 1003.8 |
| 20260506083304 | 15 | 223 | 16.1 | 35.4 | 0.00 | 2.54 | 0.20 | 74 | 1003.6 |
| 20260506083204 | 15 | 227 | 16.1 | 35.4 | 0.00 | 2.54 | 0.20 | 76 | 1003.6 |
| 20260506083104 | 15 | 229 | 17.7 | 35.4 | 0.00 | 2.54 | 0.20 | 75 | 1003.6 |
| 20260506082904 | 15 | 232 | 19.3 | 35.4 | 0.00 | 2.54 | 0.20 | 75 | 1003.6 |
| 20260506082804 | 15 | 230 | 19.3 | 35.4 | 0.00 | 2.54 | 0.20 | 73 | 1003.8 |
| 20260506082704 | 15 | 230 | 19.3 | 33.8 | 0.00 | 2.54 | 0.20 | 74 | 1003.9 |
| 20260506082604 | 15 | 232 | 17.7 | 33.8 | 0.00 | 2.54 | 0.20 | 76 | 1003.8 |
| 20260506082504 | 15 | 236 | 19.3 | 37.0 | 0.00 | 2.54 | 0.20 | 76 | 1003.7 |
| 20260506082404 | 15 | 238 | 19.3 | 37.0 | 0.00 | 2.54 | 0.20 | 75 | 1003.6 |
| 20260506082305 | 15 | 233 | 20.9 | 37.0 | 0.00 | 2.54 | 0.20 | 75 | 1003.6 |
| 20260506082204 | 15 | 231 | 20.9 | 37.0 | 0.00 | 2.54 | 0.20 | 75 | 1003.5 |
| 20260506082104 | 15 | 231 | 20.9 | 37.0 | 0.00 | 2.54 | 0.20 | 75 | 1003.5 |
| 20260506082004 | 15 | 230 | 20.9 | 40.2 | 0.00 | 2.54 | 0.20 | 76 | 1003.6 |